Observation data for Claude 12 Southwest on 07/23/2019      Previous  Date  Next       Current Mesonet Observations  Soil Data  Daily Summary Page  Observations in Plain Language
KCL1 230500Z 06008KT 20/13 A3032 RMK A01 T01990133  RH  066%=      5-min Rain = 0
KCL1 230501Z 06008KT 20/13 A3032 RMK A01 T01990133  RH  066%=      5-min Rain = 0
KCL1 230502Z 06007KT 20/13 A3032 RMK A01 T01990133  RH  066%=      5-min Rain = 0
KCL1 230503Z 06008KT 20/13 A3032 RMK A01 T01980133  RH  066%=      5-min Rain = 0
KCL1 230504Z 06008KT 20/13 A3032 RMK A01 T01980133  RH  066%=      5-min Rain = 0
KCL1 230505Z 06008KT 20/13 A3032 RMK A01 T01980133  RH  066%=      5-min Rain = 0
KCL1 230506Z 06008KT 20/13 A3032 RMK A01 T01980133  RH  066%=      5-min Rain = 0
KCL1 230507Z 06007KT 20/13 A3032 RMK A01 T01980133  RH  066%=      5-min Rain = 0
KCL1 230508Z 06007KT 20/13 A3032 RMK A01 T01980133  RH  066%=      5-min Rain = 0
KCL1 230509Z 06008KT 20/13 A3032 RMK A01 T01970133  RH  066%=      5-min Rain = 0
KCL1 230510Z 06007KT 20/13 A3032 RMK A01 T01970133  RH  067%=      5-min Rain = 0
KCL1 230511Z 06007KT 20/13 A3032 RMK A01 T01970133  RH  067%=      5-min Rain = 0
KCL1 230512Z 06007KT 20/13 A3032 RMK A01 T01960133  RH  067%=      5-min Rain = 0
KCL1 230513Z 06008KT 20/13 A3032 RMK A01 T01960133  RH  067%=      5-min Rain = 0
KCL1 230514Z 06008KT 20/13 A3032 RMK A01 T01950133  RH  068%=      5-min Rain = 0
KCL1 230515Z 06008KT 19/13 A3032 RMK A01 T01940134  RH  068%=      5-min Rain = 0
KCL1 230516Z 06008KT 19/13 A3032 RMK A01 T01940134  RH  068%=      5-min Rain = 0
KCL1 230517Z 06008KT 19/13 A3032 RMK A01 T01940134  RH  068%=      5-min Rain = 0
KCL1 230518Z 06008KT 19/13 A3032 RMK A01 T01930134  RH  068%=      5-min Rain = 0
KCL1 230519Z 06008KT 19/13 A3032 RMK A01 T01930134  RH  069%=      5-min Rain = 0
KCL1 230520Z 06008KT 19/13 A3032 RMK A01 T01930134  RH  069%=      5-min Rain = 0
KCL1 230521Z 06008KT 19/13 A3033 RMK A01 T01930134  RH  068%=      5-min Rain = 0
KCL1 230522Z 06008KT 19/13 A3033 RMK A01 T01930133  RH  068%=      5-min Rain = 0
KCL1 230523Z 05008KT 19/13 A3033 RMK A01 T01930133  RH  068%=      5-min Rain = 0
KCL1 230524Z 05008KT 19/13 A3033 RMK A01 T01930133  RH  068%=      5-min Rain = 0
KCL1 230525Z 05008KT 19/13 A3033 RMK A01 T01930133  RH  068%=      5-min Rain = 0
KCL1 230526Z 05008KT 19/13 A3033 RMK A01 T01940133  RH  068%=      5-min Rain = 0
KCL1 230527Z 05008KT 19/13 A3033 RMK A01 T01940133  RH  068%=      5-min Rain = 0
KCL1 230528Z 05008KT 19/13 A3033 RMK A01 T01940133  RH  068%=      5-min Rain = 0
KCL1 230529Z 05008KT 19/13 A3033 RMK A01 T01930133  RH  068%=      5-min Rain = 0
KCL1 230530Z 05008KT 19/13 A3033 RMK A01 T01940133  RH  068%=      5-min Rain = 0
KCL1 230531Z 05007KT 19/13 A3033 RMK A01 T01930133  RH  068%=      5-min Rain = 0
KCL1 230532Z 05007KT 19/13 A3033 RMK A01 T01930133  RH  068%=      5-min Rain = 0
KCL1 230533Z 05007KT 19/13 A3033 RMK A01 T01930133  RH  068%=      5-min Rain = 0
KCL1 230534Z 05007KT 19/13 A3033 RMK A01 T01930133  RH  068%=      5-min Rain = 0
KCL1 230535Z 05007KT 19/13 A3033 RMK A01 T01930134  RH  068%=      5-min Rain = 0
KCL1 230536Z 05007KT 19/13 A3033 RMK A01 T01920133  RH  069%=      5-min Rain = 0
KCL1 230537Z 05007KT 19/13 A3033 RMK A01 T01920133  RH  069%=      5-min Rain = 0
KCL1 230538Z 05007KT 19/13 A3033 RMK A01 T01920133  RH  069%=      5-min Rain = 0
KCL1 230539Z 05007KT 19/13 A3033 RMK A01 T01910133  RH  069%=      5-min Rain = 0
KCL1 230540Z 05007KT 19/13 A3033 RMK A01 T01910133  RH  069%=      5-min Rain = 0
KCL1 230541Z 05007KT 19/13 A3033 RMK A01 T01910133  RH  069%=      5-min Rain = 0
KCL1 230542Z 05007KT 19/13 A3033 RMK A01 T01900133  RH  070%=      5-min Rain = 0
KCL1 230543Z 05007KT 19/13 A3033 RMK A01 T01890133  RH  070%=      5-min Rain = 0
KCL1 230544Z 05007KT 19/13 A3033 RMK A01 T01880133  RH  070%=      5-min Rain = 0
KCL1 230545Z 05007KT 19/13 A3033 RMK A01 T01880133  RH  070%=      5-min Rain = 0
KCL1 230546Z 05007KT 19/13 A3033 RMK A01 T01880133  RH  070%=      5-min Rain = 0
KCL1 230547Z 05007KT 19/13 A3033 RMK A01 T01870132  RH  071%=      5-min Rain = 0
KCL1 230548Z 05007KT 19/13 A3033 RMK A01 T01870133  RH  071%=      5-min Rain = 0
KCL1 230549Z 05007KT 19/13 A3033 RMK A01 T01870133  RH  071%=      5-min Rain = 0
KCL1 230550Z 06007KT 19/13 A3033 RMK A01 T01870133  RH  071%=      5-min Rain = 0
KCL1 230551Z 06007KT 19/13 A3033 RMK A01 T01870132  RH  071%=      5-min Rain = 0
KCL1 230552Z 06007KT 19/13 A3033 RMK A01 T01870132  RH  070%=      5-min Rain = 0
KCL1 230553Z 06007KT 19/13 A3033 RMK A01 T01870132  RH  070%=      5-min Rain = 0
KCL1 230554Z 06007KT 19/13 A3033 RMK A01 T01870132  RH  070%=      5-min Rain = 0
KCL1 230555Z 05006KT 19/13 A3033 RMK A01 T01870132  RH  070%=      5-min Rain = 0
KCL1 230556Z 05006KT 19/13 A3033 RMK A01 T01870132  RH  070%=      5-min Rain = 0
KCL1 230557Z 05006KT 19/13 A3033 RMK A01 T01860132  RH  071%=      5-min Rain = 0
KCL1 230558Z 05006KT 19/13 A3033 RMK A01 T01860131  RH  071%=      5-min Rain = 0
KCL1 230559Z 05006KT 19/13 A3033 RMK A01 T01850132  RH  071%=      5-min Rain = 0
KCL1 230600Z 05006KT 19/13 A3033 RMK A01 T01850131  RH  071%=      5-min Rain = 0
KCL1 230601Z 05006KT 18/13 A3033 RMK A01 T01840131  RH  071%=      5-min Rain = 0
KCL1 230602Z 05005KT 18/13 A3033 RMK A01 T01830131  RH  072%=      5-min Rain = 0
KCL1 230603Z 06005KT 18/13 A3033 RMK A01 T01830131  RH  072%=      5-min Rain = 0
KCL1 230604Z 06005KT 18/13 A3033 RMK A01 T01820131  RH  072%=      5-min Rain = 0
KCL1 230605Z 06005KT 18/13 A3033 RMK A01 T01820131  RH  072%=      5-min Rain = 0
KCL1 230606Z 06006KT 18/13 A3033 RMK A01 T01810131  RH  072%=      5-min Rain = 0
KCL1 230607Z 06006KT 18/13 A3033 RMK A01 T01810131  RH  072%=      5-min Rain = 0
KCL1 230608Z 06006KT 18/13 A3033 RMK A01 T01810131  RH  072%=      5-min Rain = 0
KCL1 230609Z 06006KT 18/13 A3033 RMK A01 T01800131  RH  073%=      5-min Rain = 0
KCL1 230610Z 06006KT 18/13 A3033 RMK A01 T01800131  RH  073%=      5-min Rain = 0
KCL1 230611Z 06006KT 18/13 A3033 RMK A01 T01790130  RH  073%=      5-min Rain = 0
KCL1 230612Z 06006KT 18/13 A3033 RMK A01 T01790130  RH  073%=      5-min Rain = 0
KCL1 230613Z 06006KT 18/13 A3033 RMK A01 T01790130  RH  073%=      5-min Rain = 0
KCL1 230614Z 06006KT 18/13 A3033 RMK A01 T01780130  RH  073%=      5-min Rain = 0
KCL1 230615Z 06006KT 18/13 A3033 RMK A01 T01780130  RH  074%=      5-min Rain = 0
KCL1 230616Z 06006KT 18/13 A3033 RMK A01 T01770130  RH  074%=      5-min Rain = 0
KCL1 230617Z 06006KT 18/13 A3033 RMK A01 T01770130  RH  074%=      5-min Rain = 0
KCL1 230618Z 06006KT 18/13 A3033 RMK A01 T01770130  RH  074%=      5-min Rain = 0
KCL1 230619Z 06006KT 18/13 A3033 RMK A01 T01770130  RH  074%=      5-min Rain = 0
KCL1 230620Z 06006KT 18/13 A3033 RMK A01 T01770130  RH  074%=      5-min Rain = 0
KCL1 230621Z 06006KT 18/13 A3033 RMK A01 T01770130  RH  074%=      5-min Rain = 0
KCL1 230622Z 07006KT 18/13 A3033 RMK A01 T01770130  RH  074%=      5-min Rain = 0
KCL1 230623Z 07006KT 18/13 A3033 RMK A01 T01770130  RH  074%=      5-min Rain = 0
KCL1 230624Z 07006KT 18/13 A3033 RMK A01 T01770130  RH  074%=      5-min Rain = 0
KCL1 230625Z 07006KT 18/13 A3033 RMK A01 T01770130  RH  074%=      5-min Rain = 0
KCL1 230626Z 07006KT 18/13 A3033 RMK A01 T01770130  RH  074%=      5-min Rain = 0
KCL1 230627Z 07006KT 18/13 A3033 RMK A01 T01760130  RH  074%=      5-min Rain = 0
KCL1 230628Z 08006KT 18/13 A3033 RMK A01 T01760129  RH  074%=      5-min Rain = 0
KCL1 230629Z 08006KT 18/13 A3033 RMK A01 T01760129  RH  074%=      5-min Rain = 0
KCL1 230630Z 08006KT 18/13 A3033 RMK A01 T01760129  RH  074%=      5-min Rain = 0
KCL1 230631Z 08006KT 18/13 A3033 RMK A01 T01760129  RH  074%=      5-min Rain = 0
KCL1 230632Z 08006KT 18/13 A3033 RMK A01 T01770129  RH  074%=      5-min Rain = 0
KCL1 230633Z 08006KT 18/13 A3033 RMK A01 T01760129  RH  074%=      5-min Rain = 0
KCL1 230634Z 08007KT 18/13 A3033 RMK A01 T01760129  RH  074%=      5-min Rain = 0
KCL1 230635Z 08007KT 18/13 A3033 RMK A01 T01770129  RH  073%=      5-min Rain = 0
KCL1 230636Z 08006KT 18/13 A3033 RMK A01 T01780129  RH  073%=      5-min Rain = 0
KCL1 230637Z 08006KT 18/13 A3033 RMK A01 T01780129  RH  073%=      5-min Rain = 0
KCL1 230638Z 08007KT 18/13 A3033 RMK A01 T01780129  RH  073%=      5-min Rain = 0
KCL1 230639Z 08007KT 18/13 A3033 RMK A01 T01780129  RH  073%=      5-min Rain = 0
KCL1 230640Z 07007KT 18/13 A3033 RMK A01 T01780129  RH  073%=      5-min Rain = 0
KCL1 230641Z 07007KT 18/13 A3033 RMK A01 T01790129  RH  072%=      5-min Rain = 0
KCL1 230642Z 07007KT 18/13 A3033 RMK A01 T01790129  RH  072%=      5-min Rain = 0
KCL1 230643Z 07007KT 18/13 A3033 RMK A01 T01800128  RH  072%=      5-min Rain = 0
KCL1 230644Z 07007KT 18/13 A3034 RMK A01 T01790128  RH  072%=      5-min Rain = 0
KCL1 230645Z 07007KT 18/13 A3034 RMK A01 T01800128  RH  072%=      5-min Rain = 0
KCL1 230646Z 07007KT 18/13 A3034 RMK A01 T01800128  RH  072%=      5-min Rain = 0
KCL1 230647Z 07007KT 18/13 A3034 RMK A01 T01790127  RH  072%=      5-min Rain = 0
KCL1 230648Z 07006KT 18/13 A3034 RMK A01 T01790127  RH  072%=      5-min Rain = 0
KCL1 230649Z 07007KT 18/13 A3034 RMK A01 T01780127  RH  072%=      5-min Rain = 0
KCL1 230650Z 07007KT 18/13 A3034 RMK A01 T01780127  RH  072%=      5-min Rain = 0
KCL1 230651Z 07007KT 18/13 A3033 RMK A01 T01780127  RH  072%=      5-min Rain = 0
KCL1 230652Z 07007KT 18/13 A3033 RMK A01 T01780127  RH  072%=      5-min Rain = 0
KCL1 230653Z 07007KT 18/13 A3033 RMK A01 T01780127  RH  072%=      5-min Rain = 0
KCL1 230654Z 07007KT 18/13 A3033 RMK A01 T01780127  RH  072%=      5-min Rain = 0
KCL1 230655Z 07007KT 18/13 A3033 RMK A01 T01780128  RH  072%=      5-min Rain = 0
KCL1 230656Z 07007KT 18/13 A3033 RMK A01 T01780127  RH  072%=      5-min Rain = 0
KCL1 230657Z 07007KT 18/13 A3033 RMK A01 T01780127  RH  072%=      5-min Rain = 0
KCL1 230658Z 07007KT 18/13 A3033 RMK A01 T01780127  RH  072%=      5-min Rain = 0
KCL1 230659Z 07007KT 18/13 A3033 RMK A01 T01780127  RH  072%=      5-min Rain = 0
KCL1 230700Z 07007KT 18/13 A3033 RMK A01 T01780128  RH  072%=      5-min Rain = 0
KCL1 230701Z 07007KT 18/13 A3033 RMK A01 T01780128  RH  072%=      5-min Rain = 0
KCL1 230702Z 07007KT 18/13 A3033 RMK A01 T01780128  RH  072%=      5-min Rain = 0
KCL1 230703Z 07007KT 18/13 A3033 RMK A01 T01780127  RH  072%=      5-min Rain = 0
KCL1 230704Z 07007KT 18/13 A3033 RMK A01 T01780127  RH  072%=      5-min Rain = 0
KCL1 230705Z 07007KT 18/13 A3033 RMK A01 T01780127  RH  072%=      5-min Rain = 0
KCL1 230706Z 07007KT 18/13 A3033 RMK A01 T01780127  RH  072%=      5-min Rain = 0
KCL1 230707Z 07007KT 18/13 A3033 RMK A01 T01780127  RH  072%=      5-min Rain = 0
KCL1 230708Z 07007KT 18/13 A3033 RMK A01 T01780127  RH  072%=      5-min Rain = 0
KCL1 230709Z 07007KT 18/13 A3033 RMK A01 T01780127  RH  072%=      5-min Rain = 0
KCL1 230710Z 07007KT 18/13 A3033 RMK A01 T01780127  RH  072%=      5-min Rain = 0
KCL1 230711Z 07007KT 18/13 A3033 RMK A01 T01770126  RH  072%=      5-min Rain = 0
KCL1 230712Z 07007KT 18/13 A3033 RMK A01 T01770126  RH  072%=      5-min Rain = 0
KCL1 230713Z 07007KT 18/13 A3033 RMK A01 T01760126  RH  073%=      5-min Rain = 0
KCL1 230714Z 07007KT 18/13 A3033 RMK A01 T01760126  RH  073%=      5-min Rain = 0
KCL1 230715Z 07007KT 18/13 A3033 RMK A01 T01760127  RH  073%=      5-min Rain = 0
KCL1 230716Z 07007KT 18/13 A3033 RMK A01 T01750127  RH  073%=      5-min Rain = 0
KCL1 230717Z 07007KT 18/13 A3033 RMK A01 T01750126  RH  073%=      5-min Rain = 0
KCL1 230718Z 07007KT 18/13 A3033 RMK A01 T01750127  RH  073%=      5-min Rain = 0
KCL1 230719Z 07007KT 18/13 A3033 RMK A01 T01750127  RH  073%=      5-min Rain = 0
KCL1 230720Z 07007KT 18/13 A3033 RMK A01 T01750127  RH  073%=      5-min Rain = 0
KCL1 230721Z 07007KT 18/13 A3033 RMK A01 T01750127  RH  073%=      5-min Rain = 0
KCL1 230722Z 07007KT 17/13 A3033 RMK A01 T01740126  RH  073%=      5-min Rain = 0
KCL1 230723Z 07007KT 17/13 A3033 RMK A01 T01740126  RH  073%=      5-min Rain = 0
KCL1 230724Z 07007KT 17/13 A3033 RMK A01 T01740127  RH  073%=      5-min Rain = 0
KCL1 230725Z 07007KT 17/13 A3033 RMK A01 T01740126  RH  074%=      5-min Rain = 0
KCL1 230726Z 07007KT 17/13 A3033 RMK A01 T01740126  RH  074%=      5-min Rain = 0
KCL1 230727Z 07007KT 17/13 A3033 RMK A01 T01740127  RH  074%=      5-min Rain = 0
KCL1 230728Z 07007KT 17/13 A3033 RMK A01 T01740126  RH  074%=      5-min Rain = 0
KCL1 230729Z 07007KT 17/13 A3033 RMK A01 T01730126  RH  074%=      5-min Rain = 0
KCL1 230730Z 07007KT 17/13 A3033 RMK A01 T01730126  RH  074%=      5-min Rain = 0
KCL1 230731Z 07007KT 17/13 A3033 RMK A01 T01730126  RH  074%=      5-min Rain = 0
KCL1 230732Z 08007KT 17/13 A3033 RMK A01 T01730126  RH  074%=      5-min Rain = 0
KCL1 230733Z 08007KT 17/13 A3033 RMK A01 T01730126  RH  074%=      5-min Rain = 0
KCL1 230734Z 08007KT 17/13 A3033 RMK A01 T01730126  RH  074%=      5-min Rain = 0
KCL1 230735Z 08007KT 17/13 A3033 RMK A01 T01730126  RH  074%=      5-min Rain = 0
KCL1 230736Z 08007KT 17/13 A3033 RMK A01 T01730126  RH  073%=      5-min Rain = 0
KCL1 230737Z 08007KT 17/13 A3033 RMK A01 T01740126  RH  073%=      5-min Rain = 0
KCL1 230738Z 08007KT 17/13 A3033 RMK A01 T01740126  RH  073%=      5-min Rain = 0
KCL1 230739Z 08007KT 17/13 A3033 RMK A01 T01740126  RH  073%=      5-min Rain = 0
KCL1 230740Z 08007KT 17/13 A3033 RMK A01 T01740126  RH  073%=      5-min Rain = 0
KCL1 230741Z 08007KT 17/13 A3033 RMK A01 T01740126  RH  073%=      5-min Rain = 0
KCL1 230742Z 08007KT 17/13 A3033 RMK A01 T01740125  RH  073%=      5-min Rain = 0
KCL1 230743Z 08007KT 17/13 A3033 RMK A01 T01740125  RH  073%=      5-min Rain = 0
KCL1 230744Z 08007KT 17/13 A3033 RMK A01 T01740126  RH  073%=      5-min Rain = 0
KCL1 230745Z 08007KT 17/13 A3033 RMK A01 T01740126  RH  073%=      5-min Rain = 0
KCL1 230746Z 08007KT 17/13 A3033 RMK A01 T01740125  RH  073%=      5-min Rain = 0
KCL1 230747Z 08007KT 17/13 A3033 RMK A01 T01730125  RH  073%=      5-min Rain = 0
KCL1 230748Z 08007KT 17/13 A3033 RMK A01 T01730125  RH  073%=      5-min Rain = 0
KCL1 230749Z 08007KT 17/13 A3033 RMK A01 T01730125  RH  073%=      5-min Rain = 0
KCL1 230750Z 08007KT 17/13 A3033 RMK A01 T01730125  RH  073%=      5-min Rain = 0
KCL1 230751Z 08007KT 17/13 A3033 RMK A01 T01740125  RH  073%=      5-min Rain = 0
KCL1 230752Z 08007KT 17/13 A3033 RMK A01 T01740125  RH  073%=      5-min Rain = 0
KCL1 230753Z 08007KT 17/13 A3033 RMK A01 T01740125  RH  073%=      5-min Rain = 0
KCL1 230754Z 08007KT 17/12 A3033 RMK A01 T01740124  RH  073%=      5-min Rain = 0
KCL1 230755Z 08007KT 17/12 A3033 RMK A01 T01740124  RH  073%=      5-min Rain = 0
KCL1 230756Z 08006KT 17/12 A3033 RMK A01 T01740124  RH  073%=      5-min Rain = 0
KCL1 230757Z 08006KT 17/12 A3033 RMK A01 T01740124  RH  073%=      5-min Rain = 0
KCL1 230758Z 08006KT 17/12 A3033 RMK A01 T01740124  RH  073%=      5-min Rain = 0
KCL1 230759Z 08006KT 17/12 A3033 RMK A01 T01740124  RH  073%=      5-min Rain = 0
KCL1 230800Z 08006KT 17/12 A3032 RMK A01 T01740124  RH  073%=      5-min Rain = 0
KCL1 230801Z 08006KT 17/12 A3032 RMK A01 T01740124  RH  072%=      5-min Rain = 0
KCL1 230802Z 08006KT 17/12 A3032 RMK A01 T01740124  RH  072%=      5-min Rain = 0
KCL1 230803Z 08006KT 18/12 A3032 RMK A01 T01750124  RH  072%=      5-min Rain = 0
KCL1 230804Z 08006KT 18/12 A3032 RMK A01 T01750124  RH  072%=      5-min Rain = 0
KCL1 230805Z 08006KT 18/12 A3032 RMK A01 T01750124  RH  072%=      5-min Rain = 0
KCL1 230806Z 08006KT 18/12 A3032 RMK A01 T01760124  RH  072%=      5-min Rain = 0
KCL1 230807Z 08006KT 18/12 A3032 RMK A01 T01750124  RH  072%=      5-min Rain = 0
KCL1 230808Z 08007KT 18/12 A3032 RMK A01 T01760124  RH  071%=      5-min Rain = 0
KCL1 230809Z 08007KT 18/12 A3032 RMK A01 T01760124  RH  071%=      5-min Rain = 0
KCL1 230810Z 08007KT 18/12 A3032 RMK A01 T01760123  RH  071%=      5-min Rain = 0
KCL1 230811Z 08007KT 18/12 A3032 RMK A01 T01760123  RH  071%=      5-min Rain = 0
KCL1 230812Z 08007KT 18/12 A3032 RMK A01 T01760123  RH  071%=      5-min Rain = 0
KCL1 230813Z 08006KT 18/12 A3032 RMK A01 T01760123  RH  071%=      5-min Rain = 0
KCL1 230814Z 08006KT 18/12 A3032 RMK A01 T01760123  RH  071%=      5-min Rain = 0
KCL1 230815Z 08006KT 18/12 A3032 RMK A01 T01760123  RH  071%=      5-min Rain = 0
KCL1 230816Z 08006KT 18/12 A3032 RMK A01 T01760123  RH  071%=      5-min Rain = 0
KCL1 230817Z 08006KT 18/12 A3032 RMK A01 T01750123  RH  071%=      5-min Rain = 0
KCL1 230818Z 08006KT 18/12 A3032 RMK A01 T01750123  RH  071%=      5-min Rain = 0
KCL1 230819Z 08007KT 17/12 A3032 RMK A01 T01740123  RH  072%=      5-min Rain = 0
KCL1 230820Z 08006KT 18/12 A3032 RMK A01 T01750123  RH  072%=      5-min Rain = 0
KCL1 230821Z 08006KT 18/12 A3032 RMK A01 T01750123  RH  072%=      5-min Rain = 0
KCL1 230822Z 08006KT 18/12 A3032 RMK A01 T01750123  RH  072%=      5-min Rain = 0
KCL1 230823Z 08006KT 18/12 A3032 RMK A01 T01750123  RH  072%=      5-min Rain = 0
KCL1 230824Z 08006KT 17/12 A3032 RMK A01 T01740123  RH  072%=      5-min Rain = 0
KCL1 230825Z 08006KT 17/12 A3032 RMK A01 T01740122  RH  072%=      5-min Rain = 0
KCL1 230826Z 08006KT 17/12 A3032 RMK A01 T01740123  RH  072%=      5-min Rain = 0
KCL1 230827Z 08006KT 17/12 A3032 RMK A01 T01740123  RH  072%=      5-min Rain = 0
KCL1 230828Z 08006KT 17/12 A3032 RMK A01 T01730122  RH  072%=      5-min Rain = 0
KCL1 230829Z 08006KT 17/12 A3032 RMK A01 T01730122  RH  072%=      5-min Rain = 0
KCL1 230830Z 08006KT 17/12 A3031 RMK A01 T01720122  RH  072%=      5-min Rain = 0
KCL1 230831Z 08006KT 17/12 A3031 RMK A01 T01720123  RH  073%=      5-min Rain = 0
KCL1 230832Z 08006KT 17/12 A3032 RMK A01 T01720123  RH  073%=      5-min Rain = 0
KCL1 230833Z 08006KT 17/12 A3032 RMK A01 T01720122  RH  073%=      5-min Rain = 0
KCL1 230834Z 08005KT 17/12 A3032 RMK A01 T01720122  RH  073%=      5-min Rain = 0
KCL1 230835Z 08005KT 17/12 A3032 RMK A01 T01720123  RH  073%=      5-min Rain = 0
KCL1 230836Z 08005KT 17/12 A3032 RMK A01 T01710122  RH  073%=      5-min Rain = 0
KCL1 230837Z 08005KT 17/12 A3032 RMK A01 T01710123  RH  073%=      5-min Rain = 0
KCL1 230838Z 08005KT 17/12 A3032 RMK A01 T01710122  RH  073%=      5-min Rain = 0
KCL1 230839Z 08005KT 17/12 A3032 RMK A01 T01710122  RH  073%=      5-min Rain = 0
KCL1 230840Z 08005KT 17/12 A3032 RMK A01 T01710122  RH  073%=      5-min Rain = 0
KCL1 230841Z 08005KT 17/12 A3032 RMK A01 T01710122  RH  073%=      5-min Rain = 0
KCL1 230842Z 08005KT 17/12 A3032 RMK A01 T01700121  RH  073%=      5-min Rain = 0
KCL1 230843Z 08005KT 17/12 A3032 RMK A01 T01690122  RH  073%=      5-min Rain = 0
KCL1 230844Z 07005KT 17/12 A3032 RMK A01 T01690122  RH  074%=      5-min Rain = 0
KCL1 230845Z 07005KT 17/12 A3032 RMK A01 T01680122  RH  074%=      5-min Rain = 0
KCL1 230846Z 07005KT 17/12 A3032 RMK A01 T01680122  RH  074%=      5-min Rain = 0
KCL1 230847Z 07005KT 17/12 A3032 RMK A01 T01670121  RH  074%=      5-min Rain = 0
KCL1 230848Z 07005KT 17/12 A3032 RMK A01 T01670122  RH  074%=      5-min Rain = 0
KCL1 230849Z 07005KT 17/12 A3031 RMK A01 T01660121  RH  075%=      5-min Rain = 0
KCL1 230850Z 07005KT 17/12 A3031 RMK A01 T01660121  RH  075%=      5-min Rain = 0
KCL1 230851Z 07004KT 17/12 A3031 RMK A01 T01650121  RH  075%=      5-min Rain = 0
KCL1 230852Z 07004KT 16/12 A3031 RMK A01 T01640121  RH  075%=      5-min Rain = 0
KCL1 230853Z 08004KT 16/12 A3032 RMK A01 T01630120  RH  076%=      5-min Rain = 0
KCL1 230854Z 08004KT 16/12 A3032 RMK A01 T01620120  RH  076%=      5-min Rain = 0
KCL1 230855Z 09004KT 16/12 A3032 RMK A01 T01610120  RH  077%=      5-min Rain = 0
KCL1 230856Z 09004KT 16/12 A3032 RMK A01 T01600120  RH  077%=      5-min Rain = 0
KCL1 230857Z 09004KT 16/12 A3032 RMK A01 T01600120  RH  077%=      5-min Rain = 0
KCL1 230858Z 09004KT 16/12 A3032 RMK A01 T01600120  RH  077%=      5-min Rain = 0
KCL1 230859Z 10004KT 16/12 A3032 RMK A01 T01600120  RH  077%=      5-min Rain = 0
KCL1 230900Z 10004KT 16/12 A3032 RMK A01 T01610121  RH  077%=      5-min Rain = 0
KCL1 230901Z 10004KT 16/12 A3032 RMK A01 T01620121  RH  077%=      5-min Rain = 0
KCL1 230902Z 10004KT 16/12 A3032 RMK A01 T01630121  RH  076%=      5-min Rain = 0
KCL1 230903Z 10004KT 16/12 A3032 RMK A01 T01630121  RH  076%=      5-min Rain = 0
KCL1 230904Z 11004KT 16/12 A3032 RMK A01 T01640120  RH  075%=      5-min Rain = 0
KCL1 230905Z 11004KT 16/12 A3032 RMK A01 T01640121  RH  075%=      5-min Rain = 0
KCL1 230906Z 11004KT 16/12 A3032 RMK A01 T01640121  RH  075%=      5-min Rain = 0
KCL1 230907Z 10004KT 17/12 A3032 RMK A01 T01650120  RH  075%=      5-min Rain = 0
KCL1 230908Z 10004KT 17/12 A3032 RMK A01 T01660120  RH  074%=      5-min Rain = 0
KCL1 230909Z 11004KT 17/12 A3032 RMK A01 T01680121  RH  074%=      5-min Rain = 0
KCL1 230910Z 11004KT 17/12 A3032 RMK A01 T01690120  RH  073%=      5-min Rain = 0
KCL1 230911Z 10004KT 17/12 A3032 RMK A01 T01700121  RH  073%=      5-min Rain = 0
KCL1 230912Z 10004KT 17/12 A3032 RMK A01 T01710121  RH  072%=      5-min Rain = 0
KCL1 230913Z 11004KT 17/12 A3032 RMK A01 T01710121  RH  072%=      5-min Rain = 0
KCL1 230914Z 10004KT 17/12 A3032 RMK A01 T01720121  RH  072%=      5-min Rain = 0
KCL1 230915Z 11004KT 17/12 A3032 RMK A01 T01720121  RH  072%=      5-min Rain = 0
KCL1 230916Z 11005KT 17/12 A3032 RMK A01 T01720120  RH  072%=      5-min Rain = 0
KCL1 230917Z 11005KT 17/12 A3032 RMK A01 T01710120  RH  072%=      5-min Rain = 0
KCL1 230918Z 10006KT 17/12 A3031 RMK A01 T01710120  RH  072%=      5-min Rain = 0
KCL1 230919Z 10006KT 17/12 A3031 RMK A01 T01710120  RH  072%=      5-min Rain = 0
KCL1 230920Z 10006KT 17/12 A3031 RMK A01 T01710120  RH  072%=      5-min Rain = 0
KCL1 230921Z 10006KT 17/12 A3031 RMK A01 T01690119  RH  072%=      5-min Rain = 0
KCL1 230922Z 10006KT 17/12 A3031 RMK A01 T01690119  RH  072%=      5-min Rain = 0
KCL1 230923Z 10007KT 17/12 A3031 RMK A01 T01690119  RH  072%=      5-min Rain = 0
KCL1 230924Z 10006KT 17/12 A3031 RMK A01 T01710119  RH  072%=      5-min Rain = 0
KCL1 230925Z 10006KT 17/12 A3031 RMK A01 T01710119  RH  071%=      5-min Rain = 0
KCL1 230926Z 10006KT 17/12 A3031 RMK A01 T01710119  RH  071%=      5-min Rain = 0
KCL1 230927Z 10006KT 17/12 A3031 RMK A01 T01710119  RH  071%=      5-min Rain = 0
KCL1 230928Z 10006KT 17/12 A3031 RMK A01 T01710119  RH  071%=      5-min Rain = 0
KCL1 230929Z 10006KT 17/12 A3031 RMK A01 T01720118  RH  071%=      5-min Rain = 0
KCL1 230930Z 10005KT 17/12 A3031 RMK A01 T01720118  RH  071%=      5-min Rain = 0
KCL1 230931Z 11005KT 17/12 A3031 RMK A01 T01720119  RH  071%=      5-min Rain = 0
KCL1 230932Z 11005KT 17/12 A3031 RMK A01 T01720118  RH  071%=      5-min Rain = 0
KCL1 230933Z 11005KT 17/12 A3031 RMK A01 T01720118  RH  070%=      5-min Rain = 0
KCL1 230934Z 11005KT 17/12 A3031 RMK A01 T01720118  RH  070%=      5-min Rain = 0
KCL1 230935Z 11006KT 17/12 A3031 RMK A01 T01730118  RH  070%=      5-min Rain = 0
KCL1 230936Z 11006KT 17/12 A3031 RMK A01 T01720118  RH  070%=      5-min Rain = 0
KCL1 230937Z 10006KT 17/12 A3031 RMK A01 T01730118  RH  070%=      5-min Rain = 0
KCL1 230938Z 10006KT 17/12 A3031 RMK A01 T01720118  RH  070%=      5-min Rain = 0
KCL1 230939Z 10006KT 17/12 A3031 RMK A01 T01720118  RH  070%=      5-min Rain = 0
KCL1 230940Z 10006KT 17/12 A3031 RMK A01 T01720118  RH  070%=      5-min Rain = 0
KCL1 230941Z 10006KT 17/12 A3031 RMK A01 T01720118  RH  070%=      5-min Rain = 0
KCL1 230942Z 10006KT 17/12 A3031 RMK A01 T01720118  RH  070%=      5-min Rain = 0
KCL1 230943Z 10006KT 17/12 A3031 RMK A01 T01710118  RH  071%=      5-min Rain = 0
KCL1 230944Z 10006KT 17/12 A3031 RMK A01 T01710117  RH  071%=      5-min Rain = 0
KCL1 230945Z 10006KT 17/12 A3031 RMK A01 T01700117  RH  071%=      5-min Rain = 0
KCL1 230946Z 10006KT 17/12 A3031 RMK A01 T01700117  RH  071%=      5-min Rain = 0
KCL1 230947Z 10006KT 17/12 A3031 RMK A01 T01700117  RH  071%=      5-min Rain = 0
KCL1 230948Z 10006KT 17/12 A3031 RMK A01 T01690117  RH  071%=      5-min Rain = 0
KCL1 230949Z 10006KT 17/12 A3031 RMK A01 T01690117  RH  071%=      5-min Rain = 0
KCL1 230950Z 10006KT 17/12 A3031 RMK A01 T01680117  RH  071%=      5-min Rain = 0
KCL1 230951Z 10006KT 17/12 A3031 RMK A01 T01690117  RH  071%=      5-min Rain = 0
KCL1 230952Z 10006KT 17/12 A3031 RMK A01 T01700117  RH  071%=      5-min Rain = 0
KCL1 230953Z 10006KT 17/12 A3031 RMK A01 T01700117  RH  071%=      5-min Rain = 0
KCL1 230954Z 10006KT 17/12 A3031 RMK A01 T01700117  RH  071%=      5-min Rain = 0
KCL1 230955Z 09006KT 17/12 A3031 RMK A01 T01700117  RH  071%=      5-min Rain = 0
KCL1 230956Z 09006KT 17/12 A3031 RMK A01 T01700117  RH  071%=      5-min Rain = 0
KCL1 230957Z 09006KT 17/12 A3031 RMK A01 T01700117  RH  071%=      5-min Rain = 0
KCL1 230958Z 09005KT 17/12 A3031 RMK A01 T01700117  RH  071%=      5-min Rain = 0
KCL1 230959Z 09006KT 17/12 A3032 RMK A01 T01700117  RH  071%=      5-min Rain = 0
KCL1 231000Z 08005KT 17/12 A3032 RMK A01 T01690117  RH  071%=      5-min Rain = 0
KCL1 231001Z 08005KT 17/12 A3032 RMK A01 T01690117  RH  071%=      5-min Rain = 0
KCL1 231002Z 08005KT 17/12 A3032 RMK A01 T01680117  RH  072%=      5-min Rain = 0
KCL1 231003Z 08005KT 17/12 A3032 RMK A01 T01680117  RH  072%=      5-min Rain = 0
KCL1 231004Z 08006KT 17/12 A3032 RMK A01 T01670117  RH  072%=      5-min Rain = 0
KCL1 231005Z 08006KT 17/12 A3032 RMK A01 T01670117  RH  072%=      5-min Rain = 0
KCL1 231006Z 08006KT 17/12 A3032 RMK A01 T01660117  RH  073%=      5-min Rain = 0
KCL1 231007Z 07006KT 17/12 A3032 RMK A01 T01660117  RH  073%=      5-min Rain = 0
KCL1 231008Z 07007KT 17/12 A3032 RMK A01 T01650117  RH  073%=      5-min Rain = 0
KCL1 231009Z 07007KT 17/12 A3032 RMK A01 T01650117  RH  073%=      5-min Rain = 0
KCL1 231010Z 07007KT 17/12 A3032 RMK A01 T01660118  RH  073%=      5-min Rain = 0
KCL1 231011Z 07007KT 17/12 A3032 RMK A01 T01670118  RH  073%=      5-min Rain = 0
KCL1 231012Z 07006KT 17/12 A3032 RMK A01 T01670118  RH  073%=      5-min Rain = 0
KCL1 231013Z 07006KT 17/12 A3032 RMK A01 T01670117  RH  073%=      5-min Rain = 0
KCL1 231014Z 07006KT 17/12 A3032 RMK A01 T01670118  RH  073%=      5-min Rain = 0
KCL1 231015Z 07006KT 17/12 A3032 RMK A01 T01660117  RH  073%=      5-min Rain = 0
KCL1 231016Z 07005KT 17/12 A3032 RMK A01 T01660117  RH  073%=      5-min Rain = 0
KCL1 231017Z 07005KT 17/12 A3032 RMK A01 T01650117  RH  073%=      5-min Rain = 0
KCL1 231018Z 07005KT 17/12 A3032 RMK A01 T01650118  RH  073%=      5-min Rain = 0
KCL1 231019Z 07005KT 17/12 A3032 RMK A01 T01650117  RH  073%=      5-min Rain = 0
KCL1 231020Z 07005KT 16/12 A3032 RMK A01 T01640117  RH  074%=      5-min Rain = 0
KCL1 231021Z 07005KT 16/12 A3032 RMK A01 T01640117  RH  074%=      5-min Rain = 0
KCL1 231022Z 06005KT 16/12 A3032 RMK A01 T01640117  RH  074%=      5-min Rain = 0
KCL1 231023Z 06005KT 16/12 A3032 RMK A01 T01640117  RH  074%=      5-min Rain = 0
KCL1 231024Z 06005KT 16/12 A3032 RMK A01 T01630116  RH  074%=      5-min Rain = 0
KCL1 231025Z 06005KT 16/12 A3032 RMK A01 T01630117  RH  074%=      5-min Rain = 0
KCL1 231026Z 06005KT 16/12 A3032 RMK A01 T01620116  RH  075%=      5-min Rain = 0
KCL1 231027Z 06005KT 16/12 A3032 RMK A01 T01600116  RH  075%=      5-min Rain = 0
KCL1 231028Z 06005KT 16/12 A3032 RMK A01 T01600117  RH  076%=      5-min Rain = 0
KCL1 231029Z 06005KT 16/12 A3032 RMK A01 T01590117  RH  076%=      5-min Rain = 0
KCL1 231030Z 06005KT 16/12 A3032 RMK A01 T01580117  RH  076%=      5-min Rain = 0
KCL1 231031Z 06005KT 16/12 A3032 RMK A01 T01590118  RH  077%=      5-min Rain = 0
KCL1 231032Z 06005KT 16/12 A3032 RMK A01 T01590118  RH  077%=      5-min Rain = 0
KCL1 231033Z 06005KT 16/12 A3032 RMK A01 T01600118  RH  076%=      5-min Rain = 0
KCL1 231034Z 06005KT 16/12 A3032 RMK A01 T01610119  RH  076%=      5-min Rain = 0
KCL1 231035Z 06005KT 16/12 A3032 RMK A01 T01630119  RH  075%=      5-min Rain = 0
KCL1 231036Z 06005KT 16/12 A3032 RMK A01 T01640119  RH  075%=      5-min Rain = 0
KCL1 231037Z 06005KT 16/12 A3032 RMK A01 T01640119  RH  074%=      5-min Rain = 0
KCL1 231038Z 06004KT 16/12 A3032 RMK A01 T01640119  RH  075%=      5-min Rain = 0
KCL1 231039Z 06004KT 16/12 A3032 RMK A01 T01640119  RH  075%=      5-min Rain = 0
KCL1 231040Z 05004KT 16/12 A3032 RMK A01 T01640119  RH  075%=      5-min Rain = 0
KCL1 231041Z 05005KT 16/12 A3032 RMK A01 T01630119  RH  075%=      5-min Rain = 0
KCL1 231042Z 05005KT 16/12 A3032 RMK A01 T01620119  RH  075%=      5-min Rain = 0
KCL1 231043Z 06005KT 16/12 A3032 RMK A01 T01620119  RH  076%=      5-min Rain = 0
KCL1 231044Z 05005KT 16/12 A3032 RMK A01 T01620119  RH  076%=      5-min Rain = 0
KCL1 231045Z 05006KT 16/12 A3032 RMK A01 T01620118  RH  076%=      5-min Rain = 0
KCL1 231046Z 05006KT 16/12 A3032 RMK A01 T01620119  RH  075%=      5-min Rain = 0
KCL1 231047Z 06006KT 16/12 A3032 RMK A01 T01610118  RH  076%=      5-min Rain = 0
KCL1 231048Z 06006KT 16/12 A3032 RMK A01 T01600118  RH  076%=      5-min Rain = 0
KCL1 231049Z 06006KT 16/12 A3032 RMK A01 T01590118  RH  076%=      5-min Rain = 0
KCL1 231050Z 06006KT 16/12 A3032 RMK A01 T01590118  RH  076%=      5-min Rain = 0
KCL1 231051Z 06006KT 16/12 A3032 RMK A01 T01590118  RH  076%=      5-min Rain = 0
KCL1 231052Z 06006KT 16/12 A3032 RMK A01 T01590118  RH  077%=      5-min Rain = 0
KCL1 231053Z 06006KT 16/12 A3033 RMK A01 T01590119  RH  077%=      5-min Rain = 0
KCL1 231054Z 06006KT 16/12 A3033 RMK A01 T01590118  RH  077%=      5-min Rain = 0
KCL1 231055Z 05006KT 16/12 A3033 RMK A01 T01590118  RH  077%=      5-min Rain = 0
KCL1 231056Z 06006KT 16/12 A3033 RMK A01 T01590118  RH  077%=      5-min Rain = 0
KCL1 231057Z 05006KT 16/12 A3033 RMK A01 T01580118  RH  077%=      5-min Rain = 0
KCL1 231058Z 05006KT 16/12 A3033 RMK A01 T01570118  RH  077%=      5-min Rain = 0
KCL1 231059Z 05006KT 16/12 A3033 RMK A01 T01570118  RH  077%=      5-min Rain = 0
KCL1 231100Z 05006KT 16/12 A3033 RMK A01 T01570118  RH  078%=      5-min Rain = 0
KCL1 231101Z 06006KT 16/12 A3033 RMK A01 T01570118  RH  078%=      5-min Rain = 0
KCL1 231102Z 06007KT 16/12 A3033 RMK A01 T01570118  RH  077%=      5-min Rain = 0
KCL1 231103Z 06006KT 16/12 A3033 RMK A01 T01570117  RH  077%=      5-min Rain = 0
KCL1 231104Z 06007KT 16/12 A3033 RMK A01 T01560117  RH  078%=      5-min Rain = 0
KCL1 231105Z 06007KT 16/12 A3033 RMK A01 T01550117  RH  078%=      5-min Rain = 0
KCL1 231106Z 05007KT 16/12 A3033 RMK A01 T01550118  RH  078%=      5-min Rain = 0
KCL1 231107Z 06007KT 16/12 A3033 RMK A01 T01550118  RH  078%=      5-min Rain = 0
KCL1 231108Z 06007KT 16/12 A3033 RMK A01 T01550118  RH  078%=      5-min Rain = 0
KCL1 231109Z 06007KT 16/12 A3033 RMK A01 T01550118  RH  079%=      5-min Rain = 0
KCL1 231110Z 06006KT 16/12 A3033 RMK A01 T01550118  RH  079%=      5-min Rain = 0
KCL1 231111Z 06006KT 16/12 A3033 RMK A01 T01550118  RH  079%=      5-min Rain = 0
KCL1 231112Z 06006KT 16/12 A3033 RMK A01 T01550118  RH  079%=      5-min Rain = 0
KCL1 231113Z 06006KT 16/12 A3033 RMK A01 T01550118  RH  079%=      5-min Rain = 0
KCL1 231114Z 06006KT 16/12 A3033 RMK A01 T01550118  RH  079%=      5-min Rain = 0
KCL1 231115Z 06006KT 16/12 A3033 RMK A01 T01550118  RH  079%=      5-min Rain = 0
KCL1 231116Z 06006KT 15/12 A3033 RMK A01 T01540118  RH  079%=      5-min Rain = 0
KCL1 231117Z 05006KT 15/12 A3033 RMK A01 T01540118  RH  079%=      5-min Rain = 0
KCL1 231118Z 05006KT 15/12 A3033 RMK A01 T01540118  RH  079%=      5-min Rain = 0
KCL1 231119Z 05006KT 16/12 A3033 RMK A01 T01550118  RH  079%=      5-min Rain = 0
KCL1 231120Z 05006KT 16/12 A3033 RMK A01 T01550118  RH  078%=      5-min Rain = 0
KCL1 231121Z 05006KT 16/12 A3033 RMK A01 T01560118  RH  078%=      5-min Rain = 0
KCL1 231122Z 05007KT 16/12 A3033 RMK A01 T01560118  RH  078%=      5-min Rain = 0
KCL1 231123Z 05007KT 16/12 A3033 RMK A01 T01560118  RH  078%=      5-min Rain = 0
KCL1 231124Z 05007KT 16/12 A3033 RMK A01 T01560117  RH  078%=      5-min Rain = 0
KCL1 231125Z 05007KT 16/12 A3033 RMK A01 T01570118  RH  078%=      5-min Rain = 0
KCL1 231126Z 05007KT 16/12 A3033 RMK A01 T01570118  RH  078%=      5-min Rain = 0
KCL1 231127Z 05007KT 16/12 A3033 RMK A01 T01560117  RH  078%=      5-min Rain = 0
KCL1 231128Z 05007KT 16/12 A3033 RMK A01 T01560117  RH  078%=      5-min Rain = 0
KCL1 231129Z 05007KT 16/12 A3033 RMK A01 T01550118  RH  078%=      5-min Rain = 0
KCL1 231130Z 05007KT 16/12 A3033 RMK A01 T01550117  RH  078%=      5-min Rain = 0
KCL1 231131Z 05007KT 16/12 A3033 RMK A01 T01550117  RH  078%=      5-min Rain = 0
KCL1 231132Z 05007KT 16/12 A3033 RMK A01 T01550117  RH  078%=      5-min Rain = 0
KCL1 231133Z 05007KT 15/12 A3033 RMK A01 T01540117  RH  078%=      5-min Rain = 0
KCL1 231134Z 05007KT 15/12 A3033 RMK A01 T01540117  RH  079%=      5-min Rain = 0
KCL1 231135Z 05007KT 15/12 A3033 RMK A01 T01540118  RH  079%=      5-min Rain = 0
KCL1 231136Z 05007KT 15/12 A3033 RMK A01 T01540117  RH  079%=      5-min Rain = 0
KCL1 231137Z 05007KT 15/12 A3033 RMK A01 T01530117  RH  079%=      5-min Rain = 0
KCL1 231138Z 05007KT 15/12 A3033 RMK A01 T01530117  RH  079%=      5-min Rain = 0
KCL1 231139Z 05007KT 15/12 A3033 RMK A01 T01520117  RH  079%=      5-min Rain = 0
KCL1 231140Z 05007KT 15/12 A3034 RMK A01 T01520117  RH  079%=      5-min Rain = 0
KCL1 231141Z 05007KT 15/12 A3034 RMK A01 T01510117  RH  080%=      5-min Rain = 0
KCL1 231142Z 05007KT 15/12 A3034 RMK A01 T01510117  RH  080%=      5-min Rain = 0
KCL1 231143Z 05007KT 15/12 A3034 RMK A01 T01500117  RH  080%=      5-min Rain = 0
KCL1 231144Z 05007KT 15/12 A3034 RMK A01 T01510117  RH  081%=      5-min Rain = 0
KCL1 231145Z 05007KT 15/12 A3034 RMK A01 T01500117  RH  081%=      5-min Rain = 0
KCL1 231146Z 05007KT 15/12 A3034 RMK A01 T01500117  RH  080%=      5-min Rain = 0
KCL1 231147Z 05007KT 15/12 A3034 RMK A01 T01500117  RH  080%=      5-min Rain = 0
KCL1 231148Z 05007KT 15/12 A3034 RMK A01 T01500117  RH  081%=      5-min Rain = 0
KCL1 231149Z 05006KT 15/12 A3034 RMK A01 T01500117  RH  081%=      5-min Rain = 0
KCL1 231150Z 05007KT 15/12 A3034 RMK A01 T01500117  RH  080%=      5-min Rain = 0
KCL1 231151Z 05007KT 15/12 A3034 RMK A01 T01500117  RH  081%=      5-min Rain = 0
KCL1 231152Z 06007KT 15/12 A3034 RMK A01 T01500117  RH  081%=      5-min Rain = 0
KCL1 231153Z 06007KT 15/12 A3034 RMK A01 T01490117  RH  081%=      5-min Rain = 0
KCL1 231154Z 06007KT 15/12 A3034 RMK A01 T01490117  RH  081%=      5-min Rain = 0
KCL1 231155Z 06007KT 15/12 A3034 RMK A01 T01490117  RH  081%=      5-min Rain = 0
KCL1 231156Z 06007KT 15/12 A3034 RMK A01 T01490117  RH  081%=      5-min Rain = 0
KCL1 231157Z 06007KT 15/12 A3034 RMK A01 T01490117  RH  081%=      5-min Rain = 0
KCL1 231158Z 06007KT 15/12 A3034 RMK A01 T01490117  RH  082%=      5-min Rain = 0
KCL1 231159Z 06007KT 15/12 A3034 RMK A01 T01490118  RH  082%=      5-min Rain = 0
KCL1 231200Z 06007KT 15/12 A3034 RMK A01 T01480118  RH  082%=      5-min Rain = 0
KCL1 231201Z 07007KT 15/12 A3034 RMK A01 T01490118  RH  082%=      5-min Rain = 0
KCL1 231202Z 07007KT 15/12 A3034 RMK A01 T01480118  RH  082%=      5-min Rain = 0
KCL1 231203Z 06007KT 15/12 A3034 RMK A01 T01480117  RH  082%=      5-min Rain = 0
KCL1 231204Z 06007KT 15/12 A3034 RMK A01 T01490118  RH  082%=      5-min Rain = 0
KCL1 231205Z 06007KT 15/12 A3034 RMK A01 T01490118  RH  082%=      5-min Rain = 0
KCL1 231206Z 06007KT 15/12 A3034 RMK A01 T01490118  RH  082%=      5-min Rain = 0
KCL1 231207Z 06007KT 15/12 A3034 RMK A01 T01490118  RH  081%=      5-min Rain = 0
KCL1 231208Z 06007KT 15/12 A3034 RMK A01 T01490118  RH  081%=      5-min Rain = 0
KCL1 231209Z 06006KT 15/12 A3034 RMK A01 T01500118  RH  081%=      5-min Rain = 0
KCL1 231210Z 06006KT 15/12 A3034 RMK A01 T01490118  RH  081%=      5-min Rain = 0
KCL1 231211Z 06006KT 15/12 A3034 RMK A01 T01490118  RH  081%=      5-min Rain = 0
KCL1 231212Z 06006KT 15/12 A3034 RMK A01 T01500118  RH  081%=      5-min Rain = 0
KCL1 231213Z 06006KT 15/12 A3034 RMK A01 T01500118  RH  081%=      5-min Rain = 0
KCL1 231214Z 06006KT 15/12 A3034 RMK A01 T01500118  RH  081%=      5-min Rain = 0
KCL1 231215Z 06006KT 15/12 A3034 RMK A01 T01500118  RH  081%=      5-min Rain = 0
KCL1 231216Z 06006KT 15/12 A3034 RMK A01 T01510119  RH  081%=      5-min Rain = 0
KCL1 231217Z 06006KT 15/12 A3034 RMK A01 T01510119  RH  081%=      5-min Rain = 0
KCL1 231218Z 06006KT 15/12 A3034 RMK A01 T01510118  RH  081%=      5-min Rain = 0
KCL1 231219Z 06006KT 15/12 A3034 RMK A01 T01510119  RH  081%=      5-min Rain = 0
KCL1 231220Z 06006KT 15/12 A3034 RMK A01 T01520119  RH  081%=      5-min Rain = 0
KCL1 231221Z 06006KT 15/12 A3034 RMK A01 T01530119  RH  080%=      5-min Rain = 0
KCL1 231222Z 06006KT 15/12 A3035 RMK A01 T01530119  RH  080%=      5-min Rain = 0
KCL1 231223Z 06006KT 15/12 A3035 RMK A01 T01540119  RH  080%=      5-min Rain = 0
KCL1 231224Z 06006KT 16/12 A3035 RMK A01 T01550120  RH  080%=      5-min Rain = 0
KCL1 231225Z 06006KT 16/12 A3035 RMK A01 T01560120  RH  079%=      5-min Rain = 0
KCL1 231226Z 06006KT 16/12 A3035 RMK A01 T01570120  RH  079%=      5-min Rain = 0
KCL1 231227Z 06005KT 16/12 A3035 RMK A01 T01570120  RH  079%=      5-min Rain = 0
KCL1 231228Z 07005KT 16/12 A3035 RMK A01 T01590121  RH  078%=      5-min Rain = 0
KCL1 231229Z 07005KT 16/12 A3035 RMK A01 T01600121  RH  078%=      5-min Rain = 0
KCL1 231230Z 07005KT 16/12 A3035 RMK A01 T01610122  RH  077%=      5-min Rain = 0
KCL1 231231Z 08005KT 16/12 A3035 RMK A01 T01620122  RH  077%=      5-min Rain = 0
KCL1 231232Z 08005KT 16/12 A3035 RMK A01 T01630122  RH  077%=      5-min Rain = 0
KCL1 231233Z 08005KT 16/12 A3035 RMK A01 T01640123  RH  077%=      5-min Rain = 0
KCL1 231234Z 07004KT 16/12 A3035 RMK A01 T01640123  RH  076%=      5-min Rain = 0
KCL1 231235Z 08004KT 16/12 A3035 RMK A01 T01640123  RH  076%=      5-min Rain = 0
KCL1 231236Z 08004KT 17/12 A3035 RMK A01 T01650124  RH  076%=      5-min Rain = 0
KCL1 231237Z 08004KT 17/12 A3035 RMK A01 T01660124  RH  076%=      5-min Rain = 0
KCL1 231238Z 07005KT 17/12 A3035 RMK A01 T01660124  RH  076%=      5-min Rain = 0
KCL1 231239Z 08005KT 17/12 A3035 RMK A01 T01670124  RH  076%=      5-min Rain = 0
KCL1 231240Z 08005KT 17/13 A3035 RMK A01 T01680125  RH  076%=      5-min Rain = 0
KCL1 231241Z 08005KT 17/13 A3035 RMK A01 T01690126  RH  076%=      5-min Rain = 0
KCL1 231242Z 08005KT 17/13 A3035 RMK A01 T01690125  RH  075%=      5-min Rain = 0
KCL1 231243Z 08005KT 17/13 A3035 RMK A01 T01700126  RH  075%=      5-min Rain = 0
KCL1 231244Z 08005KT 17/13 A3035 RMK A01 T01710126  RH  075%=      5-min Rain = 0
KCL1 231245Z 08005KT 17/13 A3035 RMK A01 T01720126  RH  075%=      5-min Rain = 0
KCL1 231246Z 08005KT 17/13 A3035 RMK A01 T01730127  RH  074%=      5-min Rain = 0
KCL1 231247Z 09006KT 17/13 A3035 RMK A01 T01740127  RH  074%=      5-min Rain = 0
KCL1 231248Z 08006KT 18/13 A3035 RMK A01 T01750126  RH  073%=      5-min Rain = 0
KCL1 231249Z 08006KT 18/13 A3035 RMK A01 T01760127  RH  073%=      5-min Rain = 0
KCL1 231250Z 09004KT 18/13 A3035 RMK A01 T01760127  RH  073%=      5-min Rain = 0
KCL1 231251Z 09005KT 18/13 A3035 RMK A01 T01770127  RH  073%=      5-min Rain = 0
KCL1 231252Z 09005KT 18/13 A3035 RMK A01 T01780128  RH  073%=      5-min Rain = 0
KCL1 231253Z 10005KT 18/13 A3035 RMK A01 T01780128  RH  073%=      5-min Rain = 0
KCL1 231254Z 10005KT 18/13 A3035 RMK A01 T01790129  RH  072%=      5-min Rain = 0
KCL1 231255Z 09006KT 18/13 A3035 RMK A01 T01790128  RH  072%=      5-min Rain = 0
KCL1 231256Z 10004KT 18/13 A3035 RMK A01 T01790128  RH  072%=      5-min Rain = 0
KCL1 231257Z 10004KT 18/13 A3035 RMK A01 T01800129  RH  072%=      5-min Rain = 0
KCL1 231258Z 10004KT 18/13 A3036 RMK A01 T01800129  RH  072%=      5-min Rain = 0
KCL1 231259Z 09005KT 18/13 A3036 RMK A01 T01810129  RH  072%=      5-min Rain = 0
KCL1 231300Z 09005KT 18/13 A3036 RMK A01 T01820129  RH  071%=      5-min Rain = 0
KCL1 231301Z 09006KT 18/13 A3036 RMK A01 T01820129  RH  071%=      5-min Rain = 0
KCL1 231302Z 08005KT 18/13 A3036 RMK A01 T01830129  RH  071%=      5-min Rain = 0
KCL1 231303Z 09004KT 18/13 A3036 RMK A01 T01840130  RH  071%=      5-min Rain = 0
KCL1 231304Z 10004KT 18/13 A3036 RMK A01 T01840130  RH  071%=      5-min Rain = 0
KCL1 231305Z 10005KT 19/13 A3036 RMK A01 T01850131  RH  070%=      5-min Rain = 0
KCL1 231306Z 10004KT 19/13 A3036 RMK A01 T01860130  RH  070%=      5-min Rain = 0
KCL1 231307Z 10005KT 19/13 A3036 RMK A01 T01860131  RH  070%=      5-min Rain = 0
KCL1 231308Z 10005KT 19/13 A3036 RMK A01 T01870131  RH  070%=      5-min Rain = 0
KCL1 231309Z 11005KT 19/13 A3036 RMK A01 T01870131  RH  070%=      5-min Rain = 0
KCL1 231310Z 10004KT 19/13 A3036 RMK A01 T01870131  RH  070%=      5-min Rain = 0
KCL1 231311Z 10006KT 19/13 A3036 RMK A01 T01880132  RH  070%=      5-min Rain = 0
KCL1 231312Z 10005KT 19/13 A3036 RMK A01 T01890132  RH  069%=      5-min Rain = 0
KCL1 231313Z 10005KT 19/13 A3036 RMK A01 T01900132  RH  069%=      5-min Rain = 0
KCL1 231314Z 10006KT 19/13 A3036 RMK A01 T01900132  RH  069%=      5-min Rain = 0
KCL1 231315Z 10006KT 19/13 A3036 RMK A01 T01910133  RH  069%=      5-min Rain = 0
KCL1 231316Z 10005KT 19/13 A3036 RMK A01 T01920133  RH  069%=      5-min Rain = 0
KCL1 231317Z 10007KT 19/13 A3036 RMK A01 T01920133  RH  069%=      5-min Rain = 0
KCL1 231318Z 10006KT 19/13 A3036 RMK A01 T01920132  RH  068%=      5-min Rain = 0
KCL1 231319Z 10007KT 19/13 A3036 RMK A01 T01930133  RH  068%=      5-min Rain = 0
KCL1 231320Z 11007KT 19/13 A3036 RMK A01 T01930133  RH  068%=      5-min Rain = 0
KCL1 231321Z 11008KT 19/13 A3036 RMK A01 T01920133  RH  069%=      5-min Rain = 0
KCL1 231322Z 11007KT 19/13 A3036 RMK A01 T01920133  RH  069%=      5-min Rain = 0
KCL1 231323Z 10007KT 19/13 A3036 RMK A01 T01920134  RH  069%=      5-min Rain = 0
KCL1 231324Z 11006KT 19/13 A3036 RMK A01 T01930134  RH  068%=      5-min Rain = 0
KCL1 231325Z 10006KT 20/14 A3036 RMK A01 T01950135  RH  068%=      5-min Rain = 0
KCL1 231326Z 10007KT 20/14 A3036 RMK A01 T01950135  RH  068%=      5-min Rain = 0
KCL1 231327Z 10008KT 20/14 A3036 RMK A01 T01960135  RH  068%=      5-min Rain = 0
KCL1 231328Z 10008KT 20/13 A3036 RMK A01 T01960134  RH  068%=      5-min Rain = 0
KCL1 231329Z 10008KT 20/13 A3036 RMK A01 T01950134  RH  068%=      5-min Rain = 0
KCL1 231330Z 10007KT 20/13 A3036 RMK A01 T01950134  RH  068%=      5-min Rain = 0
KCL1 231331Z 09008KT 20/14 A3036 RMK A01 T01960135  RH  068%=      5-min Rain = 0
KCL1 231332Z 09008KT 20/13 A3036 RMK A01 T01970134  RH  067%=      5-min Rain = 0
KCL1 231333Z 09007KT 20/14 A3036 RMK A01 T01970135  RH  067%=      5-min Rain = 0
KCL1 231334Z 09009KT 20/14 A3036 RMK A01 T01980135  RH  067%=      5-min Rain = 0
KCL1 231335Z 09009KT 20/14 A3036 RMK A01 T01990135  RH  067%=      5-min Rain = 0
KCL1 231336Z 09008KT 20/14 A3036 RMK A01 T01990135  RH  067%=      5-min Rain = 0
KCL1 231337Z 08009KT 20/14 A3036 RMK A01 T01990135  RH  066%=      5-min Rain = 0
KCL1 231338Z 08010KT 20/14 A3036 RMK A01 T01990135  RH  066%=      5-min Rain = 0
KCL1 231339Z 08008KT 20/14 A3036 RMK A01 T01990135  RH  066%=      5-min Rain = 0
KCL1 231340Z 08008KT 20/14 A3036 RMK A01 T01990135  RH  067%=      5-min Rain = 0
KCL1 231341Z 08006KT 20/14 A3036 RMK A01 T02010137  RH  066%=      5-min Rain = 0
KCL1 231342Z 09007KT 20/14 A3037 RMK A01 T02030138  RH  066%=      5-min Rain = 0
KCL1 231343Z 09009KT 21/14 A3037 RMK A01 T02050137  RH  065%=      5-min Rain = 0
KCL1 231344Z 10008KT 21/14 A3037 RMK A01 T02050137  RH  065%=      5-min Rain = 0
KCL1 231345Z 10007KT 21/14 A3037 RMK A01 T02050137  RH  065%=      5-min Rain = 0
KCL1 231346Z 09006KT 21/14 A3037 RMK A01 T02050137  RH  065%=      5-min Rain = 0
KCL1 231347Z 09008KT 21/14 A3037 RMK A01 T02060137  RH  065%=      5-min Rain = 0
KCL1 231348Z 09008KT 21/14 A3037 RMK A01 T02060137  RH  065%=      5-min Rain = 0
KCL1 231349Z 09008KT 21/14 A3037 RMK A01 T02060136  RH  064%=      5-min Rain = 0
KCL1 231350Z 09007KT 21/14 A3037 RMK A01 T02050137  RH  065%=      5-min Rain = 0
KCL1 231351Z 11007KT 21/14 A3037 RMK A01 T02060137  RH  065%=      5-min Rain = 0
KCL1 231352Z 11007KT 21/14 A3037 RMK A01 T02070137  RH  064%=      5-min Rain = 0
KCL1 231353Z 09007KT 21/14 A3037 RMK A01 T02080137  RH  064%=      5-min Rain = 0
KCL1 231354Z 10006KT 21/14 A3037 RMK A01 T02090138  RH  064%=      5-min Rain = 0
KCL1 231355Z 09007KT 21/14 A3037 RMK A01 T02100138  RH  064%=      5-min Rain = 0
KCL1 231356Z 09008KT 21/14 A3037 RMK A01 T02100137  RH  063%=      5-min Rain = 0
KCL1 231357Z 10005KT 21/14 A3037 RMK A01 T02100138  RH  063%=      5-min Rain = 0
KCL1 231358Z 09006KT 21/14 A3037 RMK A01 T02100137  RH  063%=      5-min Rain = 0
KCL1 231359Z 10008KT 21/14 A3037 RMK A01 T02100138  RH  063%=      5-min Rain = 0
KCL1 231400Z 10009KT 21/14 A3037 RMK A01 T02110137  RH  063%=      5-min Rain = 0
KCL1 231401Z 10006KT 21/14 A3037 RMK A01 T02110136  RH  062%=      5-min Rain = 0
KCL1 231402Z 12008KT 21/14 A3037 RMK A01 T02110137  RH  062%=      5-min Rain = 0
KCL1 231403Z 12009KT 21/14 A3037 RMK A01 T02110135  RH  062%=      5-min Rain = 0
KCL1 231404Z 12008KT 21/14 A3037 RMK A01 T02120136  RH  062%=      5-min Rain = 0
KCL1 231405Z 11007KT 21/14 A3037 RMK A01 T02130136  RH  062%=      5-min Rain = 0
KCL1 231406Z 11008KT 21/14 A3037 RMK A01 T02130136  RH  062%=      5-min Rain = 0
KCL1 231407Z 12007KT 21/14 A3037 RMK A01 T02140136  RH  061%=      5-min Rain = 0
KCL1 231408Z 10007KT 21/14 A3037 RMK A01 T02140136  RH  061%=      5-min Rain = 0
KCL1 231409Z 10008KT 21/14 A3037 RMK A01 T02140135  RH  061%=      5-min Rain = 0
KCL1 231410Z 11007KT 21/14 A3037 RMK A01 T02120136  RH  062%=      5-min Rain = 0
KCL1 231411Z 09008KT 21/14 A3037 RMK A01 T02120136  RH  062%=      5-min Rain = 0
KCL1 231412Z 12006KT 21/14 A3037 RMK A01 T02130137  RH  062%=      5-min Rain = 0
KCL1 231413Z 13006KT 21/14 A3037 RMK A01 T02140137  RH  062%=      5-min Rain = 0
KCL1 231414Z 12008KT 22/14 A3037 RMK A01 T02150136  RH  061%=      5-min Rain = 0
KCL1 231415Z 11008KT 22/14 A3037 RMK A01 T02150135  RH  060%=      5-min Rain = 0
KCL1 231416Z 12007KT 22/13 A3037 RMK A01 T02150134  RH  060%=      5-min Rain = 0
KCL1 231417Z 12006KT 22/14 A3037 RMK A01 T02150135  RH  060%=      5-min Rain = 0
KCL1 231418Z 12006KT 22/14 A3037 RMK A01 T02160135  RH  060%=      5-min Rain = 0
KCL1 231419Z 13006KT 22/14 A3037 RMK A01 T02170137  RH  060%=      5-min Rain = 0
KCL1 231420Z 11008KT 22/14 A3037 RMK A01 T02180137  RH  060%=      5-min Rain = 0
KCL1 231421Z 11008KT 22/14 A3037 RMK A01 T02190135  RH  059%=      5-min Rain = 0
KCL1 231422Z 12006KT 22/14 A3037 RMK A01 T02180135  RH  059%=      5-min Rain = 0
KCL1 231423Z 13007KT 22/14 A3037 RMK A01 T02190136  RH  059%=      5-min Rain = 0
KCL1 231424Z 13007KT 22/14 A3037 RMK A01 T02220135  RH  058%=      5-min Rain = 0
KCL1 231425Z 15007KT 22/13 A3037 RMK A01 T02220134  RH  057%=      5-min Rain = 0
KCL1 231426Z 14007KT 22/14 A3037 RMK A01 T02210135  RH  058%=      5-min Rain = 0
KCL1 231427Z 13006KT 22/14 A3037 RMK A01 T02200135  RH  058%=      5-min Rain = 0
KCL1 231428Z 14008KT 22/14 A3036 RMK A01 T02210135  RH  058%=      5-min Rain = 0
KCL1 231429Z 15006KT 22/14 A3036 RMK A01 T02220135  RH  058%=      5-min Rain = 0
KCL1 231430Z 15006KT 22/14 A3036 RMK A01 T02210135  RH  058%=      5-min Rain = 0
KCL1 231431Z 14008KT 22/14 A3036 RMK A01 T02210136  RH  058%=      5-min Rain = 0
KCL1 231432Z 13007KT 22/14 A3036 RMK A01 T02200135  RH  058%=      5-min Rain = 0
KCL1 231433Z 12006KT 22/13 A3037 RMK A01 T02200134  RH  058%=      5-min Rain = 0
KCL1 231434Z 14005KT 22/14 A3036 RMK A01 T02210135  RH  058%=      5-min Rain = 0
KCL1 231435Z 12009KT 22/14 A3037 RMK A01 T02230136  RH  058%=      5-min Rain = 0
KCL1 231436Z 12007KT 22/14 A3037 RMK A01 T02230135  RH  057%=      5-min Rain = 0
KCL1 231437Z 12005KT 22/14 A3037 RMK A01 T02240135  RH  057%=      5-min Rain = 0
KCL1 231438Z 12005KT 22/14 A3037 RMK A01 T02240135  RH  057%=      5-min Rain = 0
KCL1 231439Z 15007KT 23/14 A3037 RMK A01 T02250136  RH  057%=      5-min Rain = 0
KCL1 231440Z 14008KT 23/14 A3036 RMK A01 T02260135  RH  056%=      5-min Rain = 0
KCL1 231441Z 13005KT 23/14 A3037 RMK A01 T02250135  RH  057%=      5-min Rain = 0
KCL1 231442Z 14006KT 23/14 A3036 RMK A01 T02250136  RH  057%=      5-min Rain = 0
KCL1 231443Z 13006KT 23/14 A3036 RMK A01 T02270136  RH  056%=      5-min Rain = 0
KCL1 231444Z 13007KT 23/14 A3036 RMK A01 T02280136  RH  056%=      5-min Rain = 0
KCL1 231445Z 14006KT 23/14 A3036 RMK A01 T02270136  RH  057%=      5-min Rain = 0
KCL1 231446Z 15009KT 23/14 A3036 RMK A01 T02270136  RH  056%=      5-min Rain = 0
KCL1 231447Z 15009KT 23/14 A3036 RMK A01 T02270136  RH  056%=      5-min Rain = 0
KCL1 231448Z 15009KT 23/14 A3036 RMK A01 T02270137  RH  057%=      5-min Rain = 0
KCL1 231449Z 15008KT 23/14 A3036 RMK A01 T02270136  RH  056%=      5-min Rain = 0
KCL1 231450Z 16008KT 23/14 A3036 RMK A01 T02250135  RH  057%=      5-min Rain = 0
KCL1 231451Z 17007KT 23/14 A3036 RMK A01 T02250135  RH  057%=      5-min Rain = 0
KCL1 231452Z 17006KT 22/14 A3036 RMK A01 T02240135  RH  057%=      5-min Rain = 0
KCL1 231453Z 14008KT 23/14 A3036 RMK A01 T02250137  RH  058%=      5-min Rain = 0
KCL1 231454Z 11006KT 23/14 A3037 RMK A01 T02260137  RH  057%=      5-min Rain = 0
KCL1 231455Z 11005KT 23/14 A3037 RMK A01 T02270137  RH  057%=      5-min Rain = 0
KCL1 231456Z 12004KT 23/14 A3036 RMK A01 T02270139  RH  057%=      5-min Rain = 0
KCL1 231457Z 10006KT 23/14 A3036 RMK A01 T02300139  RH  056%=      5-min Rain = 0
KCL1 231458Z 10006KT 23/14 A3036 RMK A01 T02320138  RH  055%=      5-min Rain = 0
KCL1 231459Z 10006KT 23/14 A3036 RMK A01 T02310137  RH  055%=      5-min Rain = 0
KCL1 231500Z 11008KT 23/14 A3036 RMK A01 T02300138  RH  056%=      5-min Rain = 0
KCL1 231501Z 12008KT 23/14 A3036 RMK A01 T02300138  RH  056%=      5-min Rain = 0
KCL1 231502Z 13005KT 23/14 A3036 RMK A01 T02300137  RH  056%=      5-min Rain = 0
KCL1 231503Z 14005KT 23/14 A3036 RMK A01 T02300138  RH  056%=      5-min Rain = 0
KCL1 231504Z 12005KT 23/14 A3036 RMK A01 T02330139  RH  056%=      5-min Rain = 0
KCL1 231505Z 11005KT 24/14 A3036 RMK A01 T02350137  RH  054%=      5-min Rain = 0
KCL1 231506Z 12008KT 23/14 A3036 RMK A01 T02340137  RH  055%=      5-min Rain = 0
KCL1 231507Z 12007KT 23/14 A3036 RMK A01 T02330137  RH  055%=      5-min Rain = 0
KCL1 231508Z 13007KT 23/14 A3036 RMK A01 T02340136  RH  054%=      5-min Rain = 0
KCL1 231509Z 13005KT 23/14 A3036 RMK A01 T02320136  RH  054%=      5-min Rain = 0
KCL1 231510Z 12005KT 23/14 A3036 RMK A01 T02320136  RH  055%=      5-min Rain = 0
KCL1 231511Z 10007KT 23/14 A3036 RMK A01 T02330136  RH  055%=      5-min Rain = 0
KCL1 231512Z 11006KT 23/14 A3036 RMK A01 T02330136  RH  054%=      5-min Rain = 0
KCL1 231513Z 10006KT 23/14 A3036 RMK A01 T02320136  RH  055%=      5-min Rain = 0
KCL1 231514Z 10004KT 23/14 A3036 RMK A01 T02290136  RH  055%=      5-min Rain = 0
KCL1 231515Z 10005KT 23/14 A3036 RMK A01 T02280136  RH  056%=      5-min Rain = 0
KCL1 231516Z 15007KT 23/14 A3036 RMK A01 T02290137  RH  056%=      5-min Rain = 0
KCL1 231517Z 13007KT 23/14 A3036 RMK A01 T02320137  RH  055%=      5-min Rain = 0
KCL1 231518Z 13007KT 23/14 A3036 RMK A01 T02340136  RH  054%=      5-min Rain = 0
KCL1 231519Z 13007KT 23/14 A3036 RMK A01 T02340135  RH  054%=      5-min Rain = 0
KCL1 231520Z 13005KT 24/13 A3036 RMK A01 T02350134  RH  053%=      5-min Rain = 0
KCL1 231521Z 14002KT 23/13 A3036 RMK A01 T02340134  RH  053%=      5-min Rain = 0
KCL1 231522Z 15006KT 23/14 A3036 RMK A01 T02340136  RH  054%=      5-min Rain = 0
KCL1 231523Z 14007KT 23/14 A3036 RMK A01 T02340136  RH  054%=      5-min Rain = 0
KCL1 231524Z 12005KT 24/14 A3036 RMK A01 T02350137  RH  054%=      5-min Rain = 0
KCL1 231525Z 10007KT 24/14 A3036 RMK A01 T02370139  RH  054%=      5-min Rain = 0
KCL1 231526Z 10006KT 24/14 A3036 RMK A01 T02400137  RH  053%=      5-min Rain = 0
KCL1 231527Z 14005KT 24/14 A3036 RMK A01 T02400137  RH  053%=      5-min Rain = 0
KCL1 231528Z 14006KT 24/14 A3036 RMK A01 T02390136  RH  053%=      5-min Rain = 0
KCL1 231529Z 14004KT 24/14 A3036 RMK A01 T02390136  RH  053%=      5-min Rain = 0
KCL1 231530Z 14004KT 24/14 A3036 RMK A01 T02370137  RH  053%=      5-min Rain = 0
KCL1 231531Z 13006KT 24/14 A3036 RMK A01 T02370136  RH  053%=      5-min Rain = 0
KCL1 231532Z 14007KT 24/14 A3036 RMK A01 T02390137  RH  053%=      5-min Rain = 0
KCL1 231533Z 16008KT 24/14 A3036 RMK A01 T02400137  RH  053%=      5-min Rain = 0
KCL1 231534Z 16007KT 24/14 A3036 RMK A01 T02400137  RH  052%=      5-min Rain = 0
KCL1 231535Z 16006KT 24/14 A3036 RMK A01 T02390138  RH  053%=      5-min Rain = 0
KCL1 231536Z 18005KT 24/14 A3036 RMK A01 T02380138  RH  053%=      5-min Rain = 0
KCL1 231537Z 16002KT 24/14 A3036 RMK A01 T02360137  RH  054%=      5-min Rain = 0
KCL1 231538Z 14004KT 24/14 A3036 RMK A01 T02380138  RH  053%=      5-min Rain = 0
KCL1 231539Z 12004KT 24/14 A3036 RMK A01 T02400137  RH  052%=      5-min Rain = 0
KCL1 231540Z 12006KT 24/14 A3036 RMK A01 T02410137  RH  052%=      5-min Rain = 0
KCL1 231541Z 12008KT 24/14 A3036 RMK A01 T02420139  RH  052%=      5-min Rain = 0
KCL1 231542Z 11007KT 24/14 A3036 RMK A01 T02430137  RH  051%=      5-min Rain = 0
KCL1 231543Z 11005KT 24/14 A3036 RMK A01 T02430137  RH  052%=      5-min Rain = 0
KCL1 231544Z 16004KT 24/14 A3036 RMK A01 T02410136  RH  052%=      5-min Rain = 0
KCL1 231545Z 18004KT 24/14 A3036 RMK A01 T02400136  RH  052%=      5-min Rain = 0
KCL1 231546Z 17002KT 24/14 A3036 RMK A01 T02380135  RH  053%=      5-min Rain = 0
KCL1 231547Z 12006KT 24/14 A3036 RMK A01 T02360136  RH  053%=      5-min Rain = 0
KCL1 231548Z 10003KT 24/14 A3036 RMK A01 T02380135  RH  052%=      5-min Rain = 0
KCL1 231549Z 09003KT 24/14 A3036 RMK A01 T02390136  RH  052%=      5-min Rain = 0
KCL1 231550Z 11003KT 24/14 A3036 RMK A01 T02400135  RH  052%=      5-min Rain = 0
KCL1 231551Z 10007KT 24/14 A3036 RMK A01 T02410138  RH  053%=      5-min Rain = 0
KCL1 231552Z 11005KT 25/14 A3036 RMK A01 T02450138  RH  051%=      5-min Rain = 0
KCL1 231553Z 11006KT 25/14 A3036 RMK A01 T02480140  RH  051%=      5-min Rain = 0
KCL1 231554Z 08004KT 25/14 A3036 RMK A01 T02510138  RH  049%=      5-min Rain = 0
KCL1 231555Z 08005KT 25/14 A3036 RMK A01 T02470136  RH  050%=      5-min Rain = 0
KCL1 231556Z 12007KT 24/14 A3036 RMK A01 T02420137  RH  052%=      5-min Rain = 0
KCL1 231557Z 15007KT 24/14 A3036 RMK A01 T02420138  RH  052%=      5-min Rain = 0
KCL1 231558Z 14007KT 24/14 A3036 RMK A01 T02440139  RH  052%=      5-min Rain = 0
KCL1 231559Z 14006KT 25/14 A3036 RMK A01 T02450138  RH  051%=      5-min Rain = 0
KCL1 231600Z 16006KT 25/14 A3036 RMK A01 T02450139  RH  052%=      5-min Rain = 0
KCL1 231601Z 16007KT 25/14 A3036 RMK A01 T02450140  RH  052%=      5-min Rain = 0
KCL1 231602Z 16005KT 25/14 A3036 RMK A01 T02460139  RH  051%=      5-min Rain = 0
KCL1 231603Z 17004KT 25/14 A3036 RMK A01 T02470140  RH  051%=      5-min Rain = 0
KCL1 231604Z 19004KT 25/14 A3036 RMK A01 T02480140  RH  051%=      5-min Rain = 0
KCL1 231605Z 20003KT 25/14 A3036 RMK A01 T02460138  RH  051%=      5-min Rain = 0
KCL1 231606Z 19003KT 24/14 A3036 RMK A01 T02420137  RH  052%=      5-min Rain = 0
KCL1 231607Z 16005KT 24/14 A3036 RMK A01 T02400138  RH  053%=      5-min Rain = 0
KCL1 231608Z 18007KT 24/14 A3036 RMK A01 T02430139  RH  052%=      5-min Rain = 0
KCL1 231609Z 19008KT 25/14 A3036 RMK A01 T02450139  RH  051%=      5-min Rain = 0
KCL1 231610Z 19006KT 25/14 A3036 RMK A01 T02460138  RH  051%=      5-min Rain = 0
KCL1 231611Z 20007KT 24/14 A3036 RMK A01 T02440138  RH  052%=      5-min Rain = 0
KCL1 231612Z 23004KT 24/14 A3036 RMK A01 T02410136  RH  052%=      5-min Rain = 0
KCL1 231613Z 22005KT 24/14 A3036 RMK A01 T02400137  RH  053%=      5-min Rain = 0
KCL1 231614Z 22005KT 24/14 A3036 RMK A01 T02410138  RH  052%=      5-min Rain = 0
KCL1 231615Z 17005G11KT 24/14 A3036 RMK A01 T02430138  RH  052%=      5-min Rain = 0
KCL1 231616Z 15009KT 25/14 A3036 RMK A01 T02450140  RH  052%=      5-min Rain = 0
KCL1 231617Z 14006KT 25/14 A3036 RMK A01 T02480139  RH  051%=      5-min Rain = 0
KCL1 231618Z 16003KT 25/14 A3036 RMK A01 T02490139  RH  050%=      5-min Rain = 0
KCL1 231619Z 17005KT 25/14 A3036 RMK A01 T02500138  RH  050%=      5-min Rain = 0
KCL1 231620Z 18004G9KT 25/14 A3036 RMK A01 T02490139  RH  050%=      5-min Rain = 0
KCL1 231621Z 17004KT 25/14 A3036 RMK A01 T02490137  RH  050%=      5-min Rain = 0
KCL1 231622Z 18005KT 25/14 A3036 RMK A01 T02480137  RH  050%=      5-min Rain = 0
KCL1 231623Z 15005KT 25/14 A3036 RMK A01 T02460137  RH  051%=      5-min Rain = 0
KCL1 231624Z 13006KT 25/14 A3036 RMK A01 T02460137  RH  051%=      5-min Rain = 0
KCL1 231625Z 10004KT 25/14 A3036 RMK A01 T02480137  RH  050%=      5-min Rain = 0
KCL1 231626Z 13004KT 25/14 A3036 RMK A01 T02520139  RH  050%=      5-min Rain = 0
KCL1 231627Z 15008KT 26/14 A3036 RMK A01 T02560139  RH  048%=      5-min Rain = 0
KCL1 231628Z 16007KT 25/14 A3036 RMK A01 T02540138  RH  049%=      5-min Rain = 0
KCL1 231629Z 17005KT 25/14 A3036 RMK A01 T02510137  RH  049%=      5-min Rain = 0
KCL1 231630Z 19006KT 25/14 A3036 RMK A01 T02480137  RH  050%=      5-min Rain = 0
KCL1 231631Z 20005KT 25/14 A3036 RMK A01 T02460136  RH  050%=      5-min Rain = 0
KCL1 231632Z 20006KT 25/14 A3036 RMK A01 T02450137  RH  051%=      5-min Rain = 0
KCL1 231633Z 21006KT 25/14 A3036 RMK A01 T02470137  RH  050%=      5-min Rain = 0
KCL1 231634Z 22005KT 25/14 A3036 RMK A01 T02490136  RH  049%=      5-min Rain = 0
KCL1 231635Z 22005KT 25/14 A3036 RMK A01 T02480136  RH  050%=      5-min Rain = 0
KCL1 231636Z 21006KT 25/14 A3036 RMK A01 T02470137  RH  050%=      5-min Rain = 0
KCL1 231637Z 21005KT 25/14 A3036 RMK A01 T02480137  RH  050%=      5-min Rain = 0
KCL1 231638Z 21005KT 25/14 A3036 RMK A01 T02480138  RH  050%=      5-min Rain = 0
KCL1 231639Z 20005KT 25/14 A3036 RMK A01 T02470138  RH  051%=      5-min Rain = 0
KCL1 231640Z 19004KT 24/14 A3036 RMK A01 T02440137  RH  051%=      5-min Rain = 0
KCL1 231641Z 17005KT 24/14 A3036 RMK A01 T02430139  RH  052%=      5-min Rain = 0
KCL1 231642Z 18005KT 24/14 A3036 RMK A01 T02440138  RH  052%=      5-min Rain = 0
KCL1 231643Z 16004KT 24/14 A3036 RMK A01 T02440137  RH  051%=      5-min Rain = 0
KCL1 231644Z 13004KT 24/14 A3036 RMK A01 T02430137  RH  052%=      5-min Rain = 0
KCL1 231645Z 09003KT 24/14 A3036 RMK A01 T02400136  RH  052%=      5-min Rain = 0
KCL1 231646Z 17003KT 24/14 A3036 RMK A01 T02380136  RH  053%=      5-min Rain = 0
KCL1 231647Z 19008KT 24/14 A3036 RMK A01 T02370136  RH  053%=      5-min Rain = 0
KCL1 231648Z 18007KT 24/14 A3036 RMK A01 T02370136  RH  053%=      5-min Rain = 0
KCL1 231649Z 18006KT 24/14 A3036 RMK A01 T02360135  RH  053%=      5-min Rain = 0
KCL1 231650Z 19005KT 24/14 A3036 RMK A01 T02350135  RH  053%=      5-min Rain = 0
KCL1 231651Z 20004KT 24/14 A3036 RMK A01 T02370136  RH  053%=      5-min Rain = 0
KCL1 231652Z 21004KT 24/14 A3036 RMK A01 T02430136  RH  051%=      5-min Rain = 0
KCL1 231653Z 21003KT 25/14 A3036 RMK A01 T02450136  RH  050%=      5-min Rain = 0
KCL1 231654Z 24003KT 25/14 A3036 RMK A01 T02460135  RH  050%=      5-min Rain = 0
KCL1 231655Z 27002KT 25/14 A3036 RMK A01 T02460135  RH  050%=      5-min Rain = 0
KCL1 231656Z 31001KT 25/14 A3036 RMK A01 T02460136  RH  050%=      5-min Rain = 0
KCL1 231657Z 13001KT 25/14 A3036 RMK A01 T02480138  RH  050%=      5-min Rain = 0
KCL1 231658Z 12005KT 25/14 A3035 RMK A01 T02530139  RH  049%=      5-min Rain = 0
KCL1 231659Z 12006KT 26/14 A3035 RMK A01 T02580139  RH  048%=      5-min Rain = 0
KCL1 231700Z 11007KT 26/14 A3035 RMK A01 T02600138  RH  047%=      5-min Rain = 0
KCL1 231701Z 10004KT 26/14 A3035 RMK A01 T02610139  RH  047%=      5-min Rain = 0
KCL1 231702Z 14006KT 26/14 A3035 RMK A01 T02620140  RH  047%=      5-min Rain = 0
KCL1 231703Z 14007KT 26/14 A3035 RMK A01 T02630141  RH  047%=      5-min Rain = 0
KCL1 231704Z 14007KT 26/14 A3035 RMK A01 T02630139  RH  047%=      5-min Rain = 0
KCL1 231705Z 16007KT 26/14 A3035 RMK A01 T02590139  RH  047%=      5-min Rain = 0
KCL1 231706Z 14006KT 26/14 A3035 RMK A01 T02570139  RH  048%=      5-min Rain = 0
KCL1 231707Z 14004KT 26/14 A3035 RMK A01 T02580139  RH  048%=      5-min Rain = 0
KCL1 231708Z 15003KT 26/14 A3035 RMK A01 T02590137  RH  047%=      5-min Rain = 0
KCL1 231709Z 10000KT 26/14 A3035 RMK A01 T02590139  RH  047%=      5-min Rain = 0
KCL1 231710Z 09000KT 26/14 A3035 RMK A01 T02610138  RH  047%=      5-min Rain = 0
KCL1 231711Z 07002KT 26/14 A3035 RMK A01 T02620138  RH  046%=      5-min Rain = 0
KCL1 231712Z 10003KT 26/14 A3035 RMK A01 T02610136  RH  046%=      5-min Rain = 0
KCL1 231713Z 15005KT 26/14 A3035 RMK A01 T02610139  RH  047%=      5-min Rain = 0
KCL1 231714Z 17004KT 26/14 A3035 RMK A01 T02600139  RH  047%=      5-min Rain = 0
KCL1 231715Z 17007KT 26/14 A3035 RMK A01 T02620141  RH  047%=      5-min Rain = 0
KCL1 231716Z 15005KT 27/14 A3035 RMK A01 T02650141  RH  046%=      5-min Rain = 0
KCL1 231717Z 13006KT 27/14 A3035 RMK A01 T02670141  RH  046%=      5-min Rain = 0
KCL1 231718Z 15005KT 27/14 A3035 RMK A01 T02680141  RH  046%=      5-min Rain = 0
KCL1 231719Z 16007KT 27/14 A3035 RMK A01 T02670141  RH  046%=      5-min Rain = 0
KCL1 231720Z 16005KT 26/14 A3035 RMK A01 T02630139  RH  046%=      5-min Rain = 0
KCL1 231721Z 18007KT 26/14 A3035 RMK A01 T02590138  RH  047%=      5-min Rain = 0
KCL1 231722Z 19007KT 26/14 A3035 RMK A01 T02550138  RH  048%=      5-min Rain = 0
KCL1 231723Z 16006KT 25/14 A3035 RMK A01 T02530137  RH  049%=      5-min Rain = 0
KCL1 231724Z 16003KT 25/14 A3035 RMK A01 T02500136  RH  049%=      5-min Rain = 0
KCL1 231725Z 21002KT 25/14 A3034 RMK A01 T02470135  RH  050%=      5-min Rain = 0
KCL1 231726Z 17003KT 25/14 A3034 RMK A01 T02460136  RH  050%=      5-min Rain = 0
KCL1 231727Z 18004KT 25/14 A3034 RMK A01 T02470137  RH  050%=      5-min Rain = 0
KCL1 231728Z 18004KT 25/14 A3034 RMK A01 T02480137  RH  050%=      5-min Rain = 0
KCL1 231729Z 19003KT 25/14 A3034 RMK A01 T02490137  RH  050%=      5-min Rain = 0
KCL1 231730Z 17003KT 25/14 A3034 RMK A01 T02480137  RH  050%=      5-min Rain = 0
KCL1 231731Z 19005KT 25/14 A3034 RMK A01 T02500138  RH  050%=      5-min Rain = 0
KCL1 231732Z 21005KT 25/14 A3034 RMK A01 T02520138  RH  049%=      5-min Rain = 0
KCL1 231733Z 20004KT 25/14 A3034 RMK A01 T02520137  RH  049%=      5-min Rain = 0
KCL1 231734Z 19003KT 25/14 A3034 RMK A01 T02510137  RH  049%=      5-min Rain = 0
KCL1 231735Z 19002KT 25/14 A3034 RMK A01 T02510136  RH  049%=      5-min Rain = 0
KCL1 231736Z 25002KT 25/14 A3034 RMK A01 T02520138  RH  049%=      5-min Rain = 0
KCL1 231737Z 29001KT 26/14 A3034 RMK A01 T02550140  RH  049%=      5-min Rain = 0
KCL1 231738Z 36001KT 26/14 A3034 RMK A01 T02600140  RH  048%=      5-min Rain = 0
KCL1 231739Z 01001KT 26/14 A3034 RMK A01 T02640141  RH  047%=      5-min Rain = 0
KCL1 231740Z 17002KT 27/14 A3034 RMK A01 T02650139  RH  046%=      5-min Rain = 0
KCL1 231741Z 19002KT 27/14 A3034 RMK A01 T02650139  RH  046%=      5-min Rain = 0
KCL1 231742Z 18002KT 26/14 A3034 RMK A01 T02630138  RH  046%=      5-min Rain = 0
KCL1 231743Z 19002KT 26/14 A3034 RMK A01 T02620137  RH  046%=      5-min Rain = 0
KCL1 231744Z 15001KT 26/14 A3034 RMK A01 T02600137  RH  047%=      5-min Rain = 0
KCL1 231745Z 10001KT 26/14 A3034 RMK A01 T02580137  RH  047%=      5-min Rain = 0
KCL1 231746Z 06004KT 26/14 A3033 RMK A01 T02580135  RH  046%=      5-min Rain = 0
KCL1 231747Z 03007KT 26/13 A3033 RMK A01 T02580133  RH  046%=      5-min Rain = 0
KCL1 231748Z 02007KT 26/13 A3033 RMK A01 T02560134  RH  047%=      5-min Rain = 0
KCL1 231749Z 01007KT 26/13 A3033 RMK A01 T02560133  RH  047%=      5-min Rain = 0
KCL1 231750Z 02005KT 26/13 A3033 RMK A01 T02550132  RH  046%=      5-min Rain = 0
KCL1 231751Z 03006KT 26/13 A3033 RMK A01 T02550132  RH  047%=      5-min Rain = 0
KCL1 231752Z 00003KT 26/13 A3033 RMK A01 T02580134  RH  046%=      5-min Rain = 0
KCL1 231753Z 02003KT 26/13 A3033 RMK A01 T02620133  RH  045%=      5-min Rain = 0
KCL1 231754Z 01004KT 26/13 A3033 RMK A01 T02630134  RH  045%=      5-min Rain = 0
KCL1 231755Z 34003KT 27/13 A3033 RMK A01 T02660133  RH  044%=      5-min Rain = 0
KCL1 231756Z 29003KT 27/13 A3033 RMK A01 T02670133  RH  044%=      5-min Rain = 0
KCL1 231757Z 29003KT 27/13 A3033 RMK A01 T02680133  RH  043%=      5-min Rain = 0
KCL1 231758Z 26002KT 27/13 A3033 RMK A01 T02680132  RH  043%=      5-min Rain = 0
KCL1 231759Z 23002KT 27/13 A3033 RMK A01 T02660131  RH  043%=      5-min Rain = 0
KCL1 231800Z 33001KT 27/13 A3033 RMK A01 T02650134  RH  044%=      5-min Rain = 0
KCL1 231801Z 06002KT 27/13 A3033 RMK A01 T02650132  RH  044%=      5-min Rain = 0
KCL1 231802Z 08004KT 27/13 A3033 RMK A01 T02650132  RH  044%=      5-min Rain = 0
KCL1 231803Z 08004KT 26/13 A3033 RMK A01 T02620132  RH  045%=      5-min Rain = 0
KCL1 231804Z 08009KT 26/13 A3033 RMK A01 T02600132  RH  045%=      5-min Rain = 0
KCL1 231805Z 08009KT 26/13 A3033 RMK A01 T02610132  RH  045%=      5-min Rain = 0
KCL1 231806Z 08006KT 26/13 A3033 RMK A01 T02610131  RH  045%=      5-min Rain = 0
KCL1 231807Z 13004KT 26/13 A3033 RMK A01 T02590132  RH  045%=      5-min Rain = 0
KCL1 231808Z 12006KT 26/13 A3032 RMK A01 T02620134  RH  045%=      5-min Rain = 0
KCL1 231809Z 11006KT 27/13 A3032 RMK A01 T02660134  RH  044%=      5-min Rain = 0
KCL1 231810Z 11006KT 27/13 A3032 RMK A01 T02690134  RH  043%=      5-min Rain = 0
KCL1 231811Z 10005KT 27/13 A3032 RMK A01 T02690134  RH  043%=      5-min Rain = 0
KCL1 231812Z 10002KT 27/13 A3032 RMK A01 T02690133  RH  043%=      5-min Rain = 0
KCL1 231813Z 03003KT 27/13 A3032 RMK A01 T02710134  RH  043%=      5-min Rain = 0
KCL1 231814Z 34005KT 27/13 A3032 RMK A01 T02730131  RH  041%=      5-min Rain = 0
KCL1 231815Z 34006KT 27/13 A3032 RMK A01 T02720130  RH  042%=      5-min Rain = 0
KCL1 231816Z 36003KT 27/13 A3032 RMK A01 T02690130  RH  042%=      5-min Rain = 0
KCL1 231817Z 06007KT 27/13 A3032 RMK A01 T02680132  RH  043%=      5-min Rain = 0
KCL1 231818Z 09003KT 27/13 A3032 RMK A01 T02670134  RH  044%=      5-min Rain = 0
KCL1 231819Z 10005KT 27/13 A3032 RMK A01 T02680133  RH  043%=      5-min Rain = 0
KCL1 231820Z 09009KT 27/13 A3032 RMK A01 T02660132  RH  043%=      5-min Rain = 0
KCL1 231821Z 09007KT 27/14 A3032 RMK A01 T02700136  RH  044%=      5-min Rain = 0
KCL1 231822Z 10008KT 28/14 A3032 RMK A01 T02770135  RH  042%=      5-min Rain = 0
KCL1 231823Z 11008KT 28/13 A3032 RMK A01 T02770133  RH  041%=      5-min Rain = 0
KCL1 231824Z 11007KT 28/13 A3032 RMK A01 T02770134  RH  041%=      5-min Rain = 0
KCL1 231825Z 09006KT 28/14 A3032 RMK A01 T02810136  RH  041%=      5-min Rain = 0
KCL1 231826Z 07007KT 28/13 A3032 RMK A01 T02810133  RH  040%=      5-min Rain = 0
KCL1 231827Z 05006KT 27/13 A3032 RMK A01 T02740132  RH  041%=      5-min Rain = 0
KCL1 231828Z 03002KT 27/13 A3032 RMK A01 T02700131  RH  042%=      5-min Rain = 0
KCL1 231829Z 10002KT 27/13 A3032 RMK A01 T02700132  RH  043%=      5-min Rain = 0
KCL1 231830Z 16002KT 27/13 A3031 RMK A01 T02720133  RH  042%=      5-min Rain = 0
KCL1 231831Z 04005G10KT 28/14 A3032 RMK A01 T02780137  RH  042%=      5-min Rain = 0
KCL1 231832Z 06009KT 28/13 A3032 RMK A01 T02800134  RH  041%=      5-min Rain = 0
KCL1 231833Z 04008KT 28/13 A3032 RMK A01 T02780133  RH  041%=      5-min Rain = 0
KCL1 231834Z 03009KT 27/13 A3032 RMK A01 T02730131  RH  041%=      5-min Rain = 0
KCL1 231835Z 03007KT 27/13 A3032 RMK A01 T02680130  RH  042%=      5-min Rain = 0
KCL1 231836Z 03006KT 27/13 A3032 RMK A01 T02660131  RH  043%=      5-min Rain = 0
KCL1 231837Z 03005KT 27/13 A3032 RMK A01 T02650131  RH  043%=      5-min Rain = 0
KCL1 231838Z 05004KT 26/13 A3032 RMK A01 T02640129  RH  043%=      5-min Rain = 0
KCL1 231839Z 09003KT 26/13 A3032 RMK A01 T02620129  RH  044%=      5-min Rain = 0
KCL1 231840Z 12003KT 26/13 A3032 RMK A01 T02620130  RH  044%=      5-min Rain = 0
KCL1 231841Z 13004KT 26/13 A3032 RMK A01 T02620130  RH  044%=      5-min Rain = 0
KCL1 231842Z 14005KT 26/13 A3032 RMK A01 T02630130  RH  044%=      5-min Rain = 0
KCL1 231843Z 11004KT 26/13 A3032 RMK A01 T02640131  RH  044%=      5-min Rain = 0
KCL1 231844Z 14003KT 27/13 A3031 RMK A01 T02650130  RH  043%=      5-min Rain = 0
KCL1 231845Z 17002KT 27/13 A3031 RMK A01 T02660129  RH  043%=      5-min Rain = 0
KCL1 231846Z 17001KT 27/13 A3031 RMK A01 T02650130  RH  043%=      5-min Rain = 0
KCL1 231847Z 15001KT 27/13 A3031 RMK A01 T02650130  RH  043%=      5-min Rain = 0
KCL1 231848Z 15003KT 27/13 A3031 RMK A01 T02660130  RH  043%=      5-min Rain = 0
KCL1 231849Z 13004KT 27/13 A3031 RMK A01 T02680131  RH  043%=      5-min Rain = 0
KCL1 231850Z 10006KT 27/13 A3031 RMK A01 T02690132  RH  043%=      5-min Rain = 0
KCL1 231851Z 09005KT 27/13 A3031 RMK A01 T02690131  RH  043%=      5-min Rain = 0
KCL1 231852Z 10005KT 27/13 A3031 RMK A01 T02680131  RH  043%=      5-min Rain = 0
KCL1 231853Z 09005KT 27/13 A3031 RMK A01 T02690131  RH  043%=      5-min Rain = 0
KCL1 231854Z 06006KT 27/13 A3031 RMK A01 T02700132  RH  043%=      5-min Rain = 0
KCL1 231855Z 08009KT 28/13 A3031 RMK A01 T02750132  RH  041%=      5-min Rain = 0
KCL1 231856Z 10007KT 28/13 A3031 RMK A01 T02790133  RH  041%=      5-min Rain = 0
KCL1 231857Z 08008KT 28/13 A3031 RMK A01 T02820134  RH  040%=      5-min Rain = 0
KCL1 231858Z 08009KT 28/13 A3031 RMK A01 T02840132  RH  039%=      5-min Rain = 0
KCL1 231859Z 10006KT 28/13 A3031 RMK A01 T02770130  RH  040%=      5-min Rain = 0
KCL1 231900Z 09004KT 27/13 A3031 RMK A01 T02730129  RH  041%=      5-min Rain = 0
KCL1 231901Z 34001KT 27/13 A3031 RMK A01 T02720130  RH  041%=      5-min Rain = 0
KCL1 231902Z 03006KT 27/13 A3031 RMK A01 T02720131  RH  042%=      5-min Rain = 0
KCL1 231903Z 00007KT 27/13 A3031 RMK A01 T02710131  RH  042%=      5-min Rain = 0
KCL1 231904Z 01006KT 27/13 A3031 RMK A01 T02700131  RH  042%=      5-min Rain = 0
KCL1 231905Z 01004KT 27/13 A3031 RMK A01 T02690130  RH  042%=      5-min Rain = 0
KCL1 231906Z 03004KT 27/13 A3031 RMK A01 T02660130  RH  043%=      5-min Rain = 0
KCL1 231907Z 09007KT 27/13 A3031 RMK A01 T02650130  RH  043%=      5-min Rain = 0
KCL1 231908Z 12005KT 27/13 A3031 RMK A01 T02660130  RH  043%=      5-min Rain = 0
KCL1 231909Z 12004KT 27/13 A3031 RMK A01 T02680131  RH  043%=      5-min Rain = 0
KCL1 231910Z 06007KT 27/13 A3031 RMK A01 T02690130  RH  042%=      5-min Rain = 0
KCL1 231911Z 04004KT 27/13 A3031 RMK A01 T02680129  RH  042%=      5-min Rain = 0
KCL1 231912Z 04002KT 27/13 A3031 RMK A01 T02670129  RH  042%=      5-min Rain = 0
KCL1 231913Z 06007KT 27/13 A3031 RMK A01 T02680130  RH  042%=      5-min Rain = 0
KCL1 231914Z 04008KT 27/13 A3031 RMK A01 T02690128  RH  042%=      5-min Rain = 0
KCL1 231915Z 06007KT 27/13 A3031 RMK A01 T02680128  RH  042%=      5-min Rain = 0
KCL1 231916Z 04004KT 27/13 A3031 RMK A01 T02670128  RH  042%=      5-min Rain = 0
KCL1 231917Z 05006KT 27/13 A3031 RMK A01 T02680128  RH  042%=      5-min Rain = 0
KCL1 231918Z 06005KT 27/13 A3031 RMK A01 T02700128  RH  042%=      5-min Rain = 0
KCL1 231919Z 04004KT 27/13 A3031 RMK A01 T02730130  RH  041%=      5-min Rain = 0
KCL1 231920Z 00004KT 28/13 A3031 RMK A01 T02770128  RH  040%=      5-min Rain = 0
KCL1 231921Z 03006KT 28/13 A3031 RMK A01 T02770128  RH  040%=      5-min Rain = 0
KCL1 231922Z 04007KT 28/13 A3031 RMK A01 T02780129  RH  040%=      5-min Rain = 0
KCL1 231923Z 04009KT 28/13 A3031 RMK A01 T02780130  RH  040%=      5-min Rain = 0
KCL1 231924Z 05008KT 28/13 A3031 RMK A01 T02810131  RH  040%=      5-min Rain = 0
KCL1 231925Z 04010KT 28/13 A3031 RMK A01 T02830129  RH  039%=      5-min Rain = 0
KCL1 231926Z 03005KT 28/13 A3031 RMK A01 T02810128  RH  039%=      5-min Rain = 0
KCL1 231927Z 04007KT 28/13 A3031 RMK A01 T02810131  RH  040%=      5-min Rain = 0
KCL1 231928Z 02005KT 28/13 A3031 RMK A01 T02820129  RH  039%=      5-min Rain = 0
KCL1 231929Z 06005KT 28/13 A3031 RMK A01 T02800129  RH  039%=      5-min Rain = 0
KCL1 231930Z 07002KT 28/13 A303 RMK A01 T02780126  RH  039%=      5-min Rain = 0
KCL1 231931Z 34004KT 28/13 A303 RMK A01 T02770130  RH  040%=      5-min Rain = 0
KCL1 231932Z 05003KT 28/13 A303 RMK A01 T02810131  RH  040%=      5-min Rain = 0
KCL1 231933Z 06009KT 28/13 A303 RMK A01 T02840133  RH  039%=      5-min Rain = 0
KCL1 231934Z 05010KT 29/13 A303 RMK A01 T02860132  RH  039%=      5-min Rain = 0
KCL1 231935Z 04007KT 28/13 A303 RMK A01 T02830131  RH  039%=      5-min Rain = 0
KCL1 231936Z 08010KT 28/13 A303 RMK A01 T02810131  RH  040%=      5-min Rain = 0
KCL1 231937Z 11010KT 28/13 A303 RMK A01 T02830131  RH  039%=      5-min Rain = 0
KCL1 231938Z 11007KT 28/13 A303 RMK A01 T02840131  RH  039%=      5-min Rain = 0
KCL1 231939Z 09009KT 28/13 A303 RMK A01 T02830131  RH  039%=      5-min Rain = 0
KCL1 231940Z 09010KT 28/13 A303 RMK A01 T02840132  RH  039%=      5-min Rain = 0
KCL1 231941Z 07007G12KT 29/13 A303 RMK A01 T02870131  RH  038%=      5-min Rain = 0
KCL1 231942Z 07004KT 29/13 A303 RMK A01 T02850129  RH  038%=      5-min Rain = 0
KCL1 231943Z 08009KT 28/13 A303 RMK A01 T02820131  RH  039%=      5-min Rain = 0
KCL1 231944Z 09009KT 28/13 A303 RMK A01 T02820131  RH  039%=      5-min Rain = 0
KCL1 231945Z 08010KT 28/13 A303 RMK A01 T02800131  RH  040%=      5-min Rain = 0
KCL1 231946Z 08010KT 28/13 A303 RMK A01 T02770130  RH  040%=      5-min Rain = 0
KCL1 231947Z 08008KT 27/13 A303 RMK A01 T02740129  RH  041%=      5-min Rain = 0
KCL1 231948Z 10009KT 27/13 A303 RMK A01 T02710129  RH  041%=      5-min Rain = 0
KCL1 231949Z 08007KT 27/13 A303 RMK A01 T02710128  RH  041%=      5-min Rain = 0
KCL1 231950Z 08006KT 27/13 A303 RMK A01 T02700128  RH  041%=      5-min Rain = 0
KCL1 231951Z 07005KT 27/13 A303 RMK A01 T02670128  RH  042%=      5-min Rain = 0
KCL1 231952Z 06007KT 27/13 A303 RMK A01 T02690130  RH  042%=      5-min Rain = 0
KCL1 231953Z 06009KT 28/13 A303 RMK A01 T02750131  RH  041%=      5-min Rain = 0
KCL1 231954Z 05007KT 28/13 A303 RMK A01 T02790131  RH  040%=      5-min Rain = 0
KCL1 231955Z 04007KT 28/13 A303 RMK A01 T02820130  RH  039%=      5-min Rain = 0
KCL1 231956Z 06006KT 28/13 A303 RMK A01 T02820130  RH  039%=      5-min Rain = 0
KCL1 231957Z 07005KT 28/13 A303 RMK A01 T02810129  RH  039%=      5-min Rain = 0
KCL1 231958Z 09006KT 28/13 A303 RMK A01 T02810128  RH  039%=      5-min Rain = 0
KCL1 231959Z 08001KT 28/13 A3029 RMK A01 T02780127  RH  039%=      5-min Rain = 0
KCL1 232000Z 01001KT 28/13 A3029 RMK A01 T02750126  RH  040%=      5-min Rain = 0
KCL1 232001Z 01001KT 27/13 A3029 RMK A01 T02740128  RH  040%=      5-min Rain = 0
KCL1 232002Z 10004KT 28/13 A3029 RMK A01 T02770129  RH  040%=      5-min Rain = 0
KCL1 232003Z 11005KT 28/13 A3029 RMK A01 T02830132  RH  039%=      5-min Rain = 0
KCL1 232004Z 14003KT 29/13 A3029 RMK A01 T02880130  RH  038%=      5-min Rain = 0
KCL1 232005Z 15005KT 29/13 A3029 RMK A01 T02890130  RH  037%=      5-min Rain = 0
KCL1 232006Z 15007KT 29/13 A3029 RMK A01 T02890127  RH  037%=      5-min Rain = 0
KCL1 232007Z 15005KT 29/13 A3029 RMK A01 T02880128  RH  037%=      5-min Rain = 0
KCL1 232008Z 10004KT 29/13 A3029 RMK A01 T02880128  RH  037%=      5-min Rain = 0
KCL1 232009Z 04006KT 29/13 A3029 RMK A01 T02890128  RH  037%=      5-min Rain = 0
KCL1 232010Z 00008KT 29/13 A3029 RMK A01 T02880128  RH  037%=      5-min Rain = 0
KCL1 232011Z 02006KT 29/13 A3029 RMK A01 T02870128  RH  038%=      5-min Rain = 0
KCL1 232012Z 03005KT 29/13 A3029 RMK A01 T02870128  RH  037%=      5-min Rain = 0
KCL1 232013Z 01007KT 29/13 A3029 RMK A01 T02880128  RH  037%=      5-min Rain = 0
KCL1 232014Z 36005KT 29/13 A3029 RMK A01 T02880128  RH  037%=      5-min Rain = 0
KCL1 232015Z 08004KT 29/13 A3029 RMK A01 T02880128  RH  037%=      5-min Rain = 0
KCL1 232016Z 10004KT 29/12 A3029 RMK A01 T02870124  RH  037%=      5-min Rain = 0
KCL1 232017Z 06006KT 28/12 A3029 RMK A01 T02830124  RH  037%=      5-min Rain = 0
KCL1 232018Z 08005KT 28/12 A3029 RMK A01 T02800124  RH  038%=      5-min Rain = 0
KCL1 232019Z 09003KT 28/12 A3028 RMK A01 T02790124  RH  038%=      5-min Rain = 0
KCL1 232020Z 09004KT 28/12 A3028 RMK A01 T02800124  RH  038%=      5-min Rain = 0
KCL1 232021Z 03006KT 28/13 A3028 RMK A01 T02820128  RH  038%=      5-min Rain = 0
KCL1 232022Z 01004KT 29/13 A3028 RMK A01 T02860128  RH  038%=      5-min Rain = 0
KCL1 232023Z 05004KT 29/13 A3028 RMK A01 T02880128  RH  037%=      5-min Rain = 0
KCL1 232024Z 35005KT 29/13 A3028 RMK A01 T02900129  RH  037%=      5-min Rain = 0
KCL1 232025Z 03003KT 29/13 A3028 RMK A01 T02920127  RH  036%=      5-min Rain = 0
KCL1 232026Z 04008KT 29/13 A3028 RMK A01 T02920127  RH  036%=      5-min Rain = 0
KCL1 232027Z 05008KT 29/13 A3028 RMK A01 T02880126  RH  037%=      5-min Rain = 0
KCL1 232028Z 04007KT 29/13 A3028 RMK A01 T02860125  RH  037%=      5-min Rain = 0
KCL1 232029Z 03008KT 29/13 A3028 RMK A01 T02860126  RH  037%=      5-min Rain = 0
KCL1 232030Z 04008KT 29/13 A3028 RMK A01 T02860127  RH  038%=      5-min Rain = 0
KCL1 232031Z 02007KT 29/13 A3028 RMK A01 T02880127  RH  037%=      5-min Rain = 0
KCL1 232032Z 04006KT 29/13 A3028 RMK A01 T02900127  RH  037%=      5-min Rain = 0
KCL1 232033Z 04003KT 29/13 A3028 RMK A01 T02900126  RH  036%=      5-min Rain = 0
KCL1 232034Z 06004KT 29/13 A3028 RMK A01 T02900127  RH  036%=      5-min Rain = 0
KCL1 232035Z 05006KT 29/13 A3028 RMK A01 T02930128  RH  036%=      5-min Rain = 0
KCL1 232036Z 07007KT 30/12 A3028 RMK A01 T02960124  RH  035%=      5-min Rain = 0
KCL1 232037Z 10004KT 29/12 A3028 RMK A01 T02910121  RH  035%=      5-min Rain = 0
KCL1 232038Z 13003KT 29/12 A3028 RMK A01 T02880121  RH  035%=      5-min Rain = 0
KCL1 232039Z 09003KT 29/12 A3028 RMK A01 T02860121  RH  036%=      5-min Rain = 0
KCL1 232040Z 05006KT 29/12 A3028 RMK A01 T02850120  RH  036%=      5-min Rain = 0
KCL1 232041Z 04009KT 29/12 A3028 RMK A01 T02850124  RH  037%=      5-min Rain = 0
KCL1 232042Z 04008KT 29/12 A3028 RMK A01 T02880124  RH  036%=      5-min Rain = 0
KCL1 232043Z 04006KT 29/12 A3028 RMK A01 T02900124  RH  036%=      5-min Rain = 0
KCL1 232044Z 05008KT 29/13 A3028 RMK A01 T02920125  RH  036%=      5-min Rain = 0
KCL1 232045Z 01007KT 29/12 A3028 RMK A01 T02890123  RH  036%=      5-min Rain = 0
KCL1 232046Z 36004KT 28/12 A3028 RMK A01 T02840122  RH  037%=      5-min Rain = 0
KCL1 232047Z 01006KT 28/12 A3028 RMK A01 T02800123  RH  038%=      5-min Rain = 0
KCL1 232048Z 01007KT 28/12 A3027 RMK A01 T02790124  RH  038%=      5-min Rain = 0
KCL1 232049Z 02006KT 28/13 A3027 RMK A01 T02830127  RH  038%=      5-min Rain = 0
KCL1 232050Z 01005KT 29/13 A3027 RMK A01 T02860127  RH  037%=      5-min Rain = 0
KCL1 232051Z 33006KT 29/13 A3027 RMK A01 T02900128  RH  037%=      5-min Rain = 0
KCL1 232052Z 34001KT 29/13 A3027 RMK A01 T02930127  RH  036%=      5-min Rain = 0
KCL1 232053Z 05003KT 30/13 A3027 RMK A01 T02960126  RH  035%=      5-min Rain = 0
KCL1 232054Z 04003KT 30/13 A3027 RMK A01 T02960125  RH  035%=      5-min Rain = 0
KCL1 232055Z 05006KT 29/13 A3027 RMK A01 T02940128  RH  036%=      5-min Rain = 0
KCL1 232056Z 05005KT 30/13 A3027 RMK A01 T02960129  RH  036%=      5-min Rain = 0
KCL1 232057Z 10004KT 30/13 A3027 RMK A01 T03000128  RH  035%=      5-min Rain = 0
KCL1 232058Z 06009G15KT 30/13 A3027 RMK A01 T03010127  RH  034%=      5-min Rain = 0
KCL1 232059Z 06010KT 30/13 A3027 RMK A01 T02980128  RH  035%=      5-min Rain = 0
KCL1 232100Z 05010KT 30/13 A3027 RMK A01 T02960126  RH  035%=      5-min Rain = 0
KCL1 232101Z 04013KT 29/13 A3027 RMK A01 T02940127  RH  036%=      5-min Rain = 0
KCL1 232102Z 04013KT 29/13 A3027 RMK A01 T02940126  RH  036%=      5-min Rain = 0
KCL1 232103Z 06010KT 29/13 A3027 RMK A01 T02940126  RH  035%=      5-min Rain = 0
KCL1 232104Z 06005KT 30/12 A3027 RMK A01 T02950124  RH  035%=      5-min Rain = 0
KCL1 232105Z 07003KT 29/12 A3027 RMK A01 T02940122  RH  035%=      5-min Rain = 0
KCL1 232106Z 05005KT 29/12 A3027 RMK A01 T02940120  RH  034%=      5-min Rain = 0
KCL1 232107Z 05005KT 29/12 A3027 RMK A01 T02930118  RH  034%=      5-min Rain = 0
KCL1 232108Z 10002KT 29/12 A3027 RMK A01 T02900122  RH  035%=      5-min Rain = 0
KCL1 232109Z 06004KT 29/13 A3027 RMK A01 T02920125  RH  036%=      5-min Rain = 0
KCL1 232110Z 05006KT 29/13 A3027 RMK A01 T02930125  RH  035%=      5-min Rain = 0
KCL1 232111Z 03005KT 29/13 A3026 RMK A01 T02930126  RH  036%=      5-min Rain = 0
KCL1 232112Z 05007KT 29/13 A3026 RMK A01 T02930125  RH  036%=      5-min Rain = 0
KCL1 232113Z 06006KT 30/13 A3026 RMK A01 T02950126  RH  035%=      5-min Rain = 0
KCL1 232114Z 07008KT 30/13 A3026 RMK A01 T02980126  RH  035%=      5-min Rain = 0
KCL1 232115Z 05008KT 30/12 A3026 RMK A01 T02970122  RH  034%=      5-min Rain = 0
KCL1 232116Z 05008KT 29/12 A3026 RMK A01 T02930121  RH  035%=      5-min Rain = 0
KCL1 232117Z 05005KT 29/12 A3026 RMK A01 T02890120  RH  035%=      5-min Rain = 0
KCL1 232118Z 05006KT 29/12 A3026 RMK A01 T02880120  RH  035%=      5-min Rain = 0
KCL1 232119Z 02004KT 29/12 A3026 RMK A01 T02870120  RH  036%=      5-min Rain = 0
KCL1 232120Z 06004KT 29/12 A3026 RMK A01 T02850121  RH  036%=      5-min Rain = 0
KCL1 232121Z 09006KT 29/12 A3026 RMK A01 T02850121  RH  036%=      5-min Rain = 0
KCL1 232122Z 07005KT 28/12 A3026 RMK A01 T02840121  RH  036%=      5-min Rain = 0
KCL1 232123Z 05010KT 28/12 A3026 RMK A01 T02830122  RH  037%=      5-min Rain = 0
KCL1 232124Z 07012KT 28/12 A3026 RMK A01 T02830120  RH  036%=      5-min Rain = 0
KCL1 232125Z 05012KT 29/12 A3026 RMK A01 T02850121  RH  036%=      5-min Rain = 0
KCL1 232126Z 03010KT 29/12 A3026 RMK A01 T02870123  RH  036%=      5-min Rain = 0
KCL1 232127Z 03007KT 29/12 A3026 RMK A01 T02890123  RH  036%=      5-min Rain = 0
KCL1 232128Z 04005KT 29/12 A3026 RMK A01 T02900123  RH  036%=      5-min Rain = 0
KCL1 232129Z 05009KT 29/12 A3026 RMK A01 T02940124  RH  035%=      5-min Rain = 0
KCL1 232130Z 05006KT 30/12 A3026 RMK A01 T02950123  RH  035%=      5-min Rain = 0
KCL1 232131Z 09005KT 29/12 A3026 RMK A01 T02930122  RH  035%=      5-min Rain = 0
KCL1 232132Z 08005KT 29/12 A3026 RMK A01 T02930121  RH  035%=      5-min Rain = 0
KCL1 232133Z 15005KT 29/12 A3026 RMK A01 T02940121  RH  034%=      5-min Rain = 0
KCL1 232134Z 11005KT 30/12 A3026 RMK A01 T02970122  RH  034%=      5-min Rain = 0
KCL1 232135Z 08006KT 30/12 A3026 RMK A01 T03000122  RH  034%=      5-min Rain = 0
KCL1 232136Z 07005KT 30/12 A3026 RMK A01 T03000122  RH  034%=      5-min Rain = 0
KCL1 232137Z 06009KT 30/13 A3026 RMK A01 T02990125  RH  034%=      5-min Rain = 0
KCL1 232138Z 05010KT 30/13 A3026 RMK A01 T02990125  RH  034%=      5-min Rain = 0
KCL1 232139Z 05010KT 30/12 A3026 RMK A01 T03000124  RH  034%=      5-min Rain = 0
KCL1 232140Z 05010KT 30/12 A3026 RMK A01 T02980124  RH  034%=      5-min Rain = 0
KCL1 232141Z 04008KT 30/12 A3026 RMK A01 T02950121  RH  034%=      5-min Rain = 0
KCL1 232142Z 03009KT 29/12 A3025 RMK A01 T02920122  RH  035%=      5-min Rain = 0
KCL1 232143Z 04009KT 29/12 A3025 RMK A01 T02920123  RH  035%=      5-min Rain = 0
KCL1 232144Z 05005KT 29/12 A3025 RMK A01 T02920121  RH  035%=      5-min Rain = 0
KCL1 232145Z 03008KT 29/12 A3025 RMK A01 T02910123  RH  035%=      5-min Rain = 0
KCL1 232146Z 01007KT 29/12 A3025 RMK A01 T02930123  RH  035%=      5-min Rain = 0
KCL1 232147Z 01007KT 29/12 A3025 RMK A01 T02930122  RH  035%=      5-min Rain = 0
KCL1 232148Z 03006KT 29/13 A3025 RMK A01 T02930125  RH  035%=      5-min Rain = 0
KCL1 232149Z 04006KT 30/13 A3025 RMK A01 T02950125  RH  035%=      5-min Rain = 0
KCL1 232150Z 06008KT 30/12 A3025 RMK A01 T02960123  RH  034%=      5-min Rain = 0
KCL1 232151Z 07008KT 30/12 A3025 RMK A01 T02960121  RH  034%=      5-min Rain = 0
KCL1 232152Z 03009KT 30/12 A3025 RMK A01 T02950122  RH  034%=      5-min Rain = 0
KCL1 232153Z 04007KT 30/12 A3025 RMK A01 T02950122  RH  035%=      5-min Rain = 0
KCL1 232154Z 07009KT 29/12 A3025 RMK A01 T02930121  RH  035%=      5-min Rain = 0
KCL1 232155Z 08008KT 29/12 A3025 RMK A01 T02910119  RH  035%=      5-min Rain = 0
KCL1 232156Z 08009KT 29/12 A3025 RMK A01 T02900119  RH  035%=      5-min Rain = 0
KCL1 232157Z 05009KT 29/12 A3025 RMK A01 T02910121  RH  035%=      5-min Rain = 0
KCL1 232158Z 06007KT 30/12 A3025 RMK A01 T02950122  RH  035%=      5-min Rain = 0
KCL1 232159Z 06005KT 30/12 A3025 RMK A01 T02970121  RH  034%=      5-min Rain = 0
KCL1 232200Z 03003KT 30/12 A3025 RMK A01 T02950120  RH  034%=      5-min Rain = 0
KCL1 232201Z 06005G10KT 29/12 A3025 RMK A01 T02940120  RH  034%=      5-min Rain = 0
KCL1 232202Z 07008KT 29/12 A3025 RMK A01 T02940121  RH  034%=      5-min Rain = 0
KCL1 232203Z 07006KT 30/12 A3025 RMK A01 T02980122  RH  034%=      5-min Rain = 0
KCL1 232204Z 09008KT 30/12 A3025 RMK A01 T02990120  RH  033%=      5-min Rain = 0
KCL1 232205Z 09008KT 30/12 A3025 RMK A01 T02950119  RH  034%=      5-min Rain = 0
KCL1 232206Z 10006KT 29/12 A3025 RMK A01 T02910119  RH  034%=      5-min Rain = 0
KCL1 232207Z 11004KT 29/12 A3025 RMK A01 T02890119  RH  035%=      5-min Rain = 0
KCL1 232208Z 09002KT 29/12 A3025 RMK A01 T02870119  RH  035%=      5-min Rain = 0
KCL1 232209Z 09000KT 29/12 A3025 RMK A01 T02860119  RH  035%=      5-min Rain = 0
KCL1 232210Z 05001KT 29/12 A3025 RMK A01 T02860120  RH  036%=      5-min Rain = 0
KCL1 232211Z 06001KT 29/12 A3025 RMK A01 T02860120  RH  036%=      5-min Rain = 0
KCL1 232212Z 03003KT 29/12 A3025 RMK A01 T02860119  RH  036%=      5-min Rain = 0
KCL1 232213Z 04006G12KT 29/12 A3024 RMK A01 T02850120  RH  036%=      5-min Rain = 0
KCL1 232214Z 07007KT 29/12 A3024 RMK A01 T02850120  RH  036%=      5-min Rain = 0
KCL1 232215Z 04006KT 29/12 A3024 RMK A01 T02860120  RH  036%=      5-min Rain = 0
KCL1 232216Z 03008KT 29/12 A3024 RMK A01 T02860121  RH  036%=      5-min Rain = 0
KCL1 232217Z 04009KT 29/12 A3024 RMK A01 T02870119  RH  035%=      5-min Rain = 0
KCL1 232218Z 03008KT 29/12 A3024 RMK A01 T02870118  RH  035%=      5-min Rain = 0
KCL1 232219Z 03010KT 29/12 A3024 RMK A01 T02860118  RH  035%=      5-min Rain = 0
KCL1 232220Z 02006KT 29/12 A3024 RMK A01 T02850118  RH  035%=      5-min Rain = 0
KCL1 232221Z 05005KT 29/12 A3024 RMK A01 T02850118  RH  036%=      5-min Rain = 0
KCL1 232222Z 07007KT 29/12 A3024 RMK A01 T02860118  RH  035%=      5-min Rain = 0
KCL1 232223Z 06007KT 29/12 A3024 RMK A01 T02870118  RH  035%=      5-min Rain = 0
KCL1 232224Z 07008KT 29/12 A3024 RMK A01 T02870118  RH  035%=      5-min Rain = 0
KCL1 232225Z 05007KT 29/12 A3024 RMK A01 T02890118  RH  035%=      5-min Rain = 0
KCL1 232226Z 07006KT 29/12 A3024 RMK A01 T02910117  RH  034%=      5-min Rain = 0
KCL1 232227Z 09005KT 29/12 A3024 RMK A01 T02910118  RH  034%=      5-min Rain = 0
KCL1 232228Z 06004KT 29/12 A3024 RMK A01 T02920117  RH  034%=      5-min Rain = 0
KCL1 232229Z 07004KT 29/12 A3024 RMK A01 T02930118  RH  034%=      5-min Rain = 0
KCL1 232230Z 09004KT 30/12 A3024 RMK A01 T02950117  RH  033%=      5-min Rain = 0
KCL1 232231Z 09003KT 29/12 A3024 RMK A01 T02940117  RH  034%=      5-min Rain = 0
KCL1 232232Z 05008KT 30/12 A3024 RMK A01 T02950119  RH  034%=      5-min Rain = 0
KCL1 232233Z 04009KT 30/12 A3024 RMK A01 T02980119  RH  033%=      5-min Rain = 0
KCL1 232234Z 05007KT 30/12 A3024 RMK A01 T03000119  RH  033%=      5-min Rain = 0
KCL1 232235Z 05005KT 30/12 A3024 RMK A01 T02970117  RH  033%=      5-min Rain = 0
KCL1 232236Z 04005KT 29/12 A3024 RMK A01 T02940119  RH  034%=      5-min Rain = 0
KCL1 232237Z 04002KT 29/12 A3024 RMK A01 T02940119  RH  034%=      5-min Rain = 0
KCL1 232238Z 14002KT 30/12 A3023 RMK A01 T02950120  RH  034%=      5-min Rain = 0
KCL1 232239Z 11004G9KT 30/12 A3023 RMK A01 T02970120  RH  033%=      5-min Rain = 0
KCL1 232240Z 11009KT 30/12 A3023 RMK A01 T03000121  RH  033%=      5-min Rain = 0
KCL1 232241Z 11009KT 30/12 A3023 RMK A01 T03010120  RH  033%=      5-min Rain = 0
KCL1 232242Z 10005KT 30/12 A3023 RMK A01 T02990121  RH  033%=      5-min Rain = 0
KCL1 232243Z 09005KT 30/12 A3023 RMK A01 T03000121  RH  033%=      5-min Rain = 0
KCL1 232244Z 11004KT 30/12 A3023 RMK A01 T03000120  RH  033%=      5-min Rain = 0
KCL1 232245Z 10004KT 30/12 A3023 RMK A01 T02990120  RH  033%=      5-min Rain = 0
KCL1 232246Z 11005KT 30/12 A3023 RMK A01 T02980120  RH  033%=      5-min Rain = 0
KCL1 232247Z 09006KT 30/12 A3023 RMK A01 T02990120  RH  033%=      5-min Rain = 0
KCL1 232248Z 06005KT 30/12 A3023 RMK A01 T02990121  RH  033%=      5-min Rain = 0
KCL1 232249Z 07009KT 30/12 A3023 RMK A01 T03000120  RH  033%=      5-min Rain = 0
KCL1 232250Z 05006KT 30/12 A3023 RMK A01 T02970118  RH  033%=      5-min Rain = 0
KCL1 232251Z 07005KT 29/12 A3023 RMK A01 T02930118  RH  034%=      5-min Rain = 0
KCL1 232252Z 05010KT 29/12 A3023 RMK A01 T02930119  RH  034%=      5-min Rain = 0
KCL1 232253Z 05010KT 29/12 A3023 RMK A01 T02920118  RH  034%=      5-min Rain = 0
KCL1 232254Z 05009KT 29/12 A3023 RMK A01 T02900118  RH  034%=      5-min Rain = 0
KCL1 232255Z 05007KT 29/12 A3023 RMK A01 T02860117  RH  035%=      5-min Rain = 0
KCL1 232256Z 06008KT 29/12 A3023 RMK A01 T02850117  RH  035%=      5-min Rain = 0
KCL1 232257Z 06007KT 29/12 A3023 RMK A01 T02850116  RH  035%=      5-min Rain = 0
KCL1 232258Z 07006KT 28/12 A3023 RMK A01 T02840117  RH  035%=      5-min Rain = 0
KCL1 232259Z 08006KT 28/12 A3023 RMK A01 T02830117  RH  036%=      5-min Rain = 0
KCL1 232300Z 10006KT 28/12 A3023 RMK A01 T02810116  RH  036%=      5-min Rain = 0
KCL1 232301Z 10006KT 28/12 A3023 RMK A01 T02810116  RH  036%=      5-min Rain = 0
KCL1 232302Z 09005KT 28/12 A3023 RMK A01 T02820117  RH  036%=      5-min Rain = 0
KCL1 232303Z 09004KT 29/12 A3023 RMK A01 T02850118  RH  036%=      5-min Rain = 0
KCL1 232304Z 05007KT 29/12 A3023 RMK A01 T02900118  RH  035%=      5-min Rain = 0
KCL1 232305Z 02005KT 29/12 A3023 RMK A01 T02900117  RH  034%=      5-min Rain = 0
KCL1 232306Z 33005KT 29/12 A3023 RMK A01 T02880117  RH  035%=      5-min Rain = 0
KCL1 232307Z 30002KT 29/12 A3023 RMK A01 T02880119  RH  035%=      5-min Rain = 0
KCL1 232308Z 06001KT 29/12 A3023 RMK A01 T02910119  RH  035%=      5-min Rain = 0
KCL1 232309Z 09004KT 29/12 A3023 RMK A01 T02920118  RH  034%=      5-min Rain = 0
KCL1 232310Z 08007KT 29/12 A3023 RMK A01 T02940119  RH  034%=      5-min Rain = 0
KCL1 232311Z 07006KT 29/12 A3022 RMK A01 T02940118  RH  034%=      5-min Rain = 0
KCL1 232312Z 05007KT 30/12 A3022 RMK A01 T02960119  RH  034%=      5-min Rain = 0
KCL1 232313Z 06005G10KT 30/12 A3022 RMK A01 T02960118  RH  033%=      5-min Rain = 0
KCL1 232314Z 06009KT 30/12 A3022 RMK A01 T02950118  RH  034%=      5-min Rain = 0
KCL1 232315Z 07005KT 29/12 A3022 RMK A01 T02930116  RH  034%=      5-min Rain = 0
KCL1 232316Z 07006KT 29/12 A3022 RMK A01 T02920117  RH  034%=      5-min Rain = 0
KCL1 232317Z 08005KT 29/12 A3022 RMK A01 T02930116  RH  034%=      5-min Rain = 0
KCL1 232318Z 08005KT 29/12 A3022 RMK A01 T02910116  RH  034%=      5-min Rain = 0
KCL1 232319Z 08003KT 29/12 A3022 RMK A01 T02900115  RH  034%=      5-min Rain = 0
KCL1 232320Z 03003KT 29/12 A3022 RMK A01 T02890115  RH  034%=      5-min Rain = 0
KCL1 232321Z 33004KT 29/12 A3022 RMK A01 T02890115  RH  034%=      5-min Rain = 0
KCL1 232322Z 34003KT 29/12 A3022 RMK A01 T02900116  RH  034%=      5-min Rain = 0
KCL1 232323Z 04003KT 29/12 A3022 RMK A01 T02900116  RH  034%=      5-min Rain = 0
KCL1 232324Z 07004KT 29/12 A3022 RMK A01 T02910117  RH  034%=      5-min Rain = 0
KCL1 232325Z 10005KT 29/12 A3022 RMK A01 T02920116  RH  034%=      5-min Rain = 0
KCL1 232326Z 08005KT 29/12 A3022 RMK A01 T02910117  RH  034%=      5-min Rain = 0
KCL1 232327Z 04007KT 29/12 A3022 RMK A01 T02940119  RH  034%=      5-min Rain = 0
KCL1 232328Z 05006KT 30/12 A3022 RMK A01 T02970118  RH  033%=      5-min Rain = 0
KCL1 232329Z 05006KT 30/12 A3022 RMK A01 T02970118  RH  033%=      5-min Rain = 0
KCL1 232330Z 07006KT 30/12 A3022 RMK A01 T02970118  RH  033%=      5-min Rain = 0
KCL1 232331Z 06009KT 30/12 A3022 RMK A01 T02970117  RH  033%=      5-min Rain = 0
KCL1 232332Z 09006KT 29/12 A3022 RMK A01 T02940115  RH  033%=      5-min Rain = 0
KCL1 232333Z 09005KT 29/12 A3022 RMK A01 T02910115  RH  033%=      5-min Rain = 0
KCL1 232334Z 04003KT 29/12 A3022 RMK A01 T02910117  RH  034%=      5-min Rain = 0
KCL1 232335Z 09004KT 29/12 A3022 RMK A01 T02930118  RH  034%=      5-min Rain = 0
KCL1 232336Z 08005KT 30/12 A3022 RMK A01 T02970119  RH  033%=      5-min Rain = 0
KCL1 232337Z 06005KT 30/12 A3022 RMK A01 T02980117  RH  033%=      5-min Rain = 0
KCL1 232338Z 05005KT 30/12 A3022 RMK A01 T02980117  RH  033%=      5-min Rain = 0
KCL1 232339Z 06006KT 30/12 A3021 RMK A01 T02980116  RH  033%=      5-min Rain = 0
KCL1 232340Z 04007KT 30/12 A3021 RMK A01 T02980118  RH  033%=      5-min Rain = 0
KCL1 232341Z 05008KT 30/12 A3022 RMK A01 T02980116  RH  033%=      5-min Rain = 0
KCL1 232342Z 06008KT 30/12 A3022 RMK A01 T02980117  RH  033%=      5-min Rain = 0
KCL1 232343Z 06006KT 30/12 A3021 RMK A01 T02950115  RH  033%=      5-min Rain = 0
KCL1 232344Z 09008G13KT 29/12 A3021 RMK A01 T02940116  RH  033%=      5-min Rain = 0
KCL1 232345Z 09010KT 29/12 A3021 RMK A01 T02940117  RH  033%=      5-min Rain = 0
KCL1 232346Z 09011KT 29/12 A3021 RMK A01 T02940116  RH  033%=      5-min Rain = 0
KCL1 232347Z 09009KT 29/12 A3021 RMK A01 T02920115  RH  033%=      5-min Rain = 0
KCL1 232348Z 09010KT 29/12 A3021 RMK A01 T02890115  RH  034%=      5-min Rain = 0
KCL1 232349Z 10008KT 29/12 A3021 RMK A01 T02880115  RH  034%=      5-min Rain = 0
KCL1 232350Z 10007KT 29/12 A3021 RMK A01 T02880116  RH  034%=      5-min Rain = 0
KCL1 232351Z 12009KT 29/12 A3021 RMK A01 T02900117  RH  034%=      5-min Rain = 0
KCL1 232352Z 10008KT 29/12 A3021 RMK A01 T02920117  RH  034%=      5-min Rain = 0
KCL1 232353Z 11009KT 29/12 A3021 RMK A01 T02920117  RH  034%=      5-min Rain = 0
KCL1 232354Z 11010KT 29/12 A3021 RMK A01 T02920117  RH  034%=      5-min Rain = 0
KCL1 232355Z 09006KT 29/12 A3021 RMK A01 T02920117  RH  034%=      5-min Rain = 0
KCL1 232356Z 11009KT 29/12 A3021 RMK A01 T02920116  RH  034%=      5-min Rain = 0
KCL1 232357Z 13008KT 29/12 A3021 RMK A01 T02900116  RH  034%=      5-min Rain = 0
KCL1 232358Z 12009KT 29/12 A3021 RMK A01 T02900117  RH  034%=      5-min Rain = 0
KCL1 232359Z 11007KT 29/12 A3021 RMK A01 T02900117  RH  034%=      5-min Rain = 0
KCL1 240000Z 10008KT 29/12 A3021 RMK A01 T02900117  RH  034%=      5-min Rain = 0
KCL1 240001Z 10007KT 29/12 A3021 RMK A01 T02900116  RH  034%=      5-min Rain = 0
KCL1 240002Z 11008KT 29/12 A3021 RMK A01 T02910117  RH  034%=      5-min Rain = 0
KCL1 240003Z 10007KT 29/12 A3021 RMK A01 T02910116  RH  034%=      5-min Rain = 0
KCL1 240004Z 09008KT 29/12 A3021 RMK A01 T02900115  RH  034%=      5-min Rain = 0
KCL1 240005Z 10008KT 29/12 A3021 RMK A01 T02890115  RH  034%=      5-min Rain = 0
KCL1 240006Z 11007KT 29/11 A3021 RMK A01 T02870114  RH  034%=      5-min Rain = 0
KCL1 240007Z 12005KT 29/11 A3021 RMK A01 T02870114  RH  034%=      5-min Rain = 0
KCL1 240008Z 12006KT 29/12 A3021 RMK A01 T02870116  RH  035%=      5-min Rain = 0
KCL1 240009Z 09010KT 29/12 A3021 RMK A01 T02890116  RH  034%=      5-min Rain = 0
KCL1 240010Z 08008KT 29/11 A3021 RMK A01 T02900114  RH  034%=      5-min Rain = 0
KCL1 240011Z 10010KT 29/11 A3021 RMK A01 T02900114  RH  034%=      5-min Rain = 0
KCL1 240012Z 10011G16KT 29/12 A3021 RMK A01 T02900115  RH  034%=      5-min Rain = 0
KCL1 240013Z 09012KT 29/11 A3021 RMK A01 T02900113  RH  033%=      5-min Rain = 0
KCL1 240014Z 09013KT 29/11 A3021 RMK A01 T02880113  RH  034%=      5-min Rain = 0
KCL1 240015Z 08011KT 29/11 A3021 RMK A01 T02850112  RH  034%=      5-min Rain = 0
KCL1 240016Z 09010KT 28/11 A3021 RMK A01 T02840112  RH  034%=      5-min Rain = 0
KCL1 240017Z 08008KT 28/11 A3021 RMK A01 T02840112  RH  034%=      5-min Rain = 0
KCL1 240018Z 09007KT 28/11 A3021 RMK A01 T02840113  RH  035%=      5-min Rain = 0
KCL1 240019Z 09008KT 28/11 A3021 RMK A01 T02840112  RH  035%=      5-min Rain = 0
KCL1 240020Z 10012KT 29/11 A3021 RMK A01 T02850113  RH  034%=      5-min Rain = 0
KCL1 240021Z 10010KT 29/11 A3021 RMK A01 T02850112  RH  034%=      5-min Rain = 0
KCL1 240022Z 10010KT 29/11 A3021 RMK A01 T02850112  RH  034%=      5-min Rain = 0
KCL1 240023Z 09008KT 29/11 A3021 RMK A01 T02850113  RH  034%=      5-min Rain = 0
KCL1 240024Z 09010KT 29/11 A3021 RMK A01 T02850113  RH  034%=      5-min Rain = 0
KCL1 240025Z 09010KT 29/11 A3021 RMK A01 T02850112  RH  034%=      5-min Rain = 0
KCL1 240026Z 08010KT 29/11 A3021 RMK A01 T02850112  RH  034%=      5-min Rain = 0
KCL1 240027Z 08010KT 28/11 A3021 RMK A01 T02840112  RH  034%=      5-min Rain = 0
KCL1 240028Z 09010KT 28/11 A3021 RMK A01 T02830112  RH  034%=      5-min Rain = 0
KCL1 240029Z 09008KT 28/11 A3021 RMK A01 T02830112  RH  035%=      5-min Rain = 0
KCL1 240030Z 10009G14KT 28/11 A3021 RMK A01 T02830113  RH  035%=      5-min Rain = 0
KCL1 240031Z 10011KT 28/11 A3021 RMK A01 T02840112  RH  034%=      5-min Rain = 0
KCL1 240032Z 10010KT 28/11 A3021 RMK A01 T02840112  RH  034%=      5-min Rain = 0
KCL1 240033Z 10010KT 28/11 A3021 RMK A01 T02830113  RH  035%=      5-min Rain = 0
KCL1 240034Z 10009KT 28/11 A3021 RMK A01 T02830112  RH  035%=      5-min Rain = 0
KCL1 240035Z 11008KT 28/11 A3021 RMK A01 T02820112  RH  035%=      5-min Rain = 0
KCL1 240036Z 10008KT 28/11 A3021 RMK A01 T02820113  RH  035%=      5-min Rain = 0
KCL1 240037Z 10009KT 28/11 A3022 RMK A01 T02830113  RH  035%=      5-min Rain = 0
KCL1 240038Z 11008KT 28/11 A3022 RMK A01 T02820112  RH  035%=      5-min Rain = 0
KCL1 240039Z 10009KT 28/11 A3022 RMK A01 T02810113  RH  035%=      5-min Rain = 0
KCL1 240040Z 10009KT 28/11 A3022 RMK A01 T02810113  RH  035%=      5-min Rain = 0
KCL1 240041Z 09010G16KT 28/11 A3022 RMK A01 T02810112  RH  035%=      5-min Rain = 0
KCL1 240042Z 10011KT 28/11 A3022 RMK A01 T02810112  RH  035%=      5-min Rain = 0
KCL1 240043Z 09011KT 28/11 A3022 RMK A01 T02810112  RH  035%=      5-min Rain = 0
KCL1 240044Z 09009KT 28/11 A3022 RMK A01 T02810112  RH  035%=      5-min Rain = 0
KCL1 240045Z 09012KT 28/11 A3022 RMK A01 T02810112  RH  035%=      5-min Rain = 0
KCL1 240046Z 10010KT 28/11 A3022 RMK A01 T02790111  RH  035%=      5-min Rain = 0
KCL1 240047Z 09011KT 28/11 A3022 RMK A01 T02790111  RH  035%=      5-min Rain = 0
KCL1 240048Z 09012KT 28/11 A3022 RMK A01 T02770110  RH  035%=      5-min Rain = 0
KCL1 240049Z 09011KT 28/11 A3022 RMK A01 T02770110  RH  035%=      5-min Rain = 0
KCL1 240050Z 09011KT 28/11 A3022 RMK A01 T02760111  RH  036%=      5-min Rain = 0
KCL1 240051Z 09011KT 28/11 A3022 RMK A01 T02760111  RH  036%=      5-min Rain = 0
KCL1 240052Z 09011KT 28/11 A3022 RMK A01 T02760110  RH  036%=      5-min Rain = 0
KCL1 240053Z 09012KT 28/11 A3022 RMK A01 T02760111  RH  036%=      5-min Rain = 0
KCL1 240054Z 09011KT 28/11 A3022 RMK A01 T02750110  RH  036%=      5-min Rain = 0
KCL1 240055Z 09010KT 27/11 A3022 RMK A01 T02740110  RH  036%=      5-min Rain = 0
KCL1 240056Z 08010KT 27/11 A3022 RMK A01 T02730110  RH  036%=      5-min Rain = 0
KCL1 240057Z 08010KT 27/11 A3022 RMK A01 T02730110  RH  036%=      5-min Rain = 0
KCL1 240058Z 08010KT 27/11 A3022 RMK A01 T02720110  RH  036%=      5-min Rain = 0
KCL1 240059Z 09009KT 27/11 A3022 RMK A01 T02720110  RH  036%=      5-min Rain = 0
KCL1 240100Z 10008KT 27/11 A3022 RMK A01 T02720110  RH  037%=      5-min Rain = 0
KCL1 240101Z 09007KT 27/11 A3022 RMK A01 T02710110  RH  037%=      5-min Rain = 0
KCL1 240102Z 10008KT 27/11 A3022 RMK A01 T02700110  RH  037%=      5-min Rain = 0
KCL1 240103Z 10008KT 27/11 A3022 RMK A01 T02690110  RH  037%=      5-min Rain = 0
KCL1 240104Z 09008KT 27/11 A3022 RMK A01 T02690110  RH  037%=      5-min Rain = 0
KCL1 240105Z 09008KT 27/11 A3022 RMK A01 T02690110  RH  037%=      5-min Rain = 0
KCL1 240106Z 09009KT 27/11 A3023 RMK A01 T02700109  RH  037%=      5-min Rain = 0
KCL1 240107Z 09007KT 27/11 A3023 RMK A01 T02700110  RH  037%=      5-min Rain = 0
KCL1 240108Z 08010KT 27/11 A3023 RMK A01 T02700110  RH  037%=      5-min Rain = 0
KCL1 240109Z 08009KT 27/11 A3023 RMK A01 T02710110  RH  037%=      5-min Rain = 0
KCL1 240110Z 08010KT 27/11 A3023 RMK A01 T02710109  RH  036%=      5-min Rain = 0
KCL1 240111Z 08010KT 27/11 A3023 RMK A01 T02710110  RH  037%=      5-min Rain = 0
KCL1 240112Z 08009KT 27/11 A3023 RMK A01 T02700109  RH  037%=      5-min Rain = 0
KCL1 240113Z 09009KT 27/11 A3023 RMK A01 T02700110  RH  037%=      5-min Rain = 0
KCL1 240114Z 09010KT 27/11 A3023 RMK A01 T02700110  RH  037%=      5-min Rain = 0
KCL1 240115Z 08009KT 27/11 A3023 RMK A01 T02690110  RH  037%=      5-min Rain = 0
KCL1 240116Z 08010KT 27/11 A3023 RMK A01 T02680110  RH  037%=      5-min Rain = 0
KCL1 240117Z 08011KT 27/11 A3023 RMK A01 T02680111  RH  037%=      5-min Rain = 0
KCL1 240118Z 08008KT 27/11 A3023 RMK A01 T02680111  RH  037%=      5-min Rain = 0
KCL1 240119Z 08009KT 27/11 A3023 RMK A01 T02670111  RH  038%=      5-min Rain = 0
KCL1 240120Z 08008KT 27/11 A3023 RMK A01 T02660111  RH  038%=      5-min Rain = 0
KCL1 240121Z 08010KT 27/11 A3023 RMK A01 T02660111  RH  038%=      5-min Rain = 0
KCL1 240122Z 08009KT 27/11 A3023 RMK A01 T02650110  RH  038%=      5-min Rain = 0
KCL1 240123Z 08009KT 27/11 A3023 RMK A01 T02650110  RH  038%=      5-min Rain = 0
KCL1 240124Z 08009KT 26/11 A3023 RMK A01 T02640110  RH  038%=      5-min Rain = 0
KCL1 240125Z 08010KT 26/11 A3023 RMK A01 T02640110  RH  038%=      5-min Rain = 0
KCL1 240126Z 08009KT 26/11 A3023 RMK A01 T02640110  RH  038%=      5-min Rain = 0
KCL1 240127Z 08009KT 26/11 A3023 RMK A01 T02640111  RH  038%=      5-min Rain = 0
KCL1 240128Z 08008KT 26/11 A3023 RMK A01 T02630111  RH  038%=      5-min Rain = 0
KCL1 240129Z 08008KT 26/11 A3023 RMK A01 T02630111  RH  039%=      5-min Rain = 0
KCL1 240130Z 08009KT 26/11 A3023 RMK A01 T02620111  RH  039%=      5-min Rain = 0
KCL1 240131Z 09008KT 26/11 A3023 RMK A01 T02620110  RH  039%=      5-min Rain = 0
KCL1 240132Z 08008KT 26/11 A3023 RMK A01 T02610111  RH  039%=      5-min Rain = 0
KCL1 240133Z 08008KT 26/11 A3023 RMK A01 T02610111  RH  039%=      5-min Rain = 0
KCL1 240134Z 08008KT 26/11 A3023 RMK A01 T02600111  RH  039%=      5-min Rain = 0
KCL1 240135Z 08008KT 26/11 A3023 RMK A01 T02600111  RH  039%=      5-min Rain = 0
KCL1 240136Z 08008KT 26/11 A3023 RMK A01 T02590111  RH  039%=      5-min Rain = 0
KCL1 240137Z 08007KT 26/11 A3023 RMK A01 T02590111  RH  040%=      5-min Rain = 0
KCL1 240138Z 09008KT 26/11 A3023 RMK A01 T02580111  RH  040%=      5-min Rain = 0
KCL1 240139Z 09007KT 26/11 A3023 RMK A01 T02570111  RH  040%=      5-min Rain = 0
KCL1 240140Z 09007KT 26/11 A3023 RMK A01 T02560111  RH  040%=      5-min Rain = 0
KCL1 240141Z 09007KT 26/11 A3023 RMK A01 T02550110  RH  040%=      5-min Rain = 0
KCL1 240142Z 09007KT 25/11 A3023 RMK A01 T02540111  RH  040%=      5-min Rain = 0
KCL1 240143Z 09007KT 25/11 A3023 RMK A01 T02540111  RH  041%=      5-min Rain = 0
KCL1 240144Z 09008KT 25/11 A3023 RMK A01 T02530111  RH  041%=      5-min Rain = 0
KCL1 240145Z 09008KT 25/11 A3023 RMK A01 T02520111  RH  041%=      5-min Rain = 0
KCL1 240146Z 09008KT 25/11 A3023 RMK A01 T02500111  RH  041%=      5-min Rain = 0
KCL1 240147Z 09008KT 25/11 A3023 RMK A01 T02490111  RH  042%=      5-min Rain = 0
KCL1 240148Z 09007KT 25/11 A3023 RMK A01 T02480111  RH  042%=      5-min Rain = 0
KCL1 240149Z 09007KT 25/11 A3023 RMK A01 T02470111  RH  042%=      5-min Rain = 0
KCL1 240150Z 09007KT 25/11 A3023 RMK A01 T02460111  RH  043%=      5-min Rain = 0
KCL1 240151Z 10007KT 25/11 A3023 RMK A01 T02450111  RH  043%=      5-min Rain = 0
KCL1 240152Z 10007KT 24/11 A3023 RMK A01 T02430111  RH  043%=      5-min Rain = 0
KCL1 240153Z 10007KT 24/11 A3023 RMK A01 T02420111  RH  044%=      5-min Rain = 0
KCL1 240154Z 10008KT 24/11 A3023 RMK A01 T02410111  RH  044%=      5-min Rain = 0
KCL1 240155Z 10007KT 24/11 A3023 RMK A01 T02400111  RH  044%=      5-min Rain = 0
KCL1 240156Z 10007KT 24/11 A3023 RMK A01 T02400112  RH  044%=      5-min Rain = 0
KCL1 240157Z 10007KT 24/11 A3023 RMK A01 T02390111  RH  045%=      5-min Rain = 0
KCL1 240158Z 11007KT 24/11 A3023 RMK A01 T02380112  RH  045%=      5-min Rain = 0
KCL1 240159Z 11007KT 24/11 A3023 RMK A01 T02370112  RH  045%=      5-min Rain = 0
KCL1 240200Z 12007KT 24/11 A3023 RMK A01 T02360112  RH  045%=      5-min Rain = 0
KCL1 240201Z 11007KT 24/11 A3023 RMK A01 T02350112  RH  046%=      5-min Rain = 0
KCL1 240202Z 10007KT 23/11 A3023 RMK A01 T02340112  RH  046%=      5-min Rain = 0
KCL1 240203Z 10007KT 23/11 A3023 RMK A01 T02330112  RH  046%=      5-min Rain = 0
KCL1 240204Z 10007KT 23/11 A3023 RMK A01 T02330111  RH  046%=      5-min Rain = 0
KCL1 240205Z 11007KT 23/11 A3023 RMK A01 T02330111  RH  046%=      5-min Rain = 0
KCL1 240206Z 10007KT 23/11 A3023 RMK A01 T02330111  RH  046%=      5-min Rain = 0
KCL1 240207Z 10007KT 23/11 A3023 RMK A01 T02330111  RH  046%=      5-min Rain = 0
KCL1 240208Z 11007KT 23/11 A3023 RMK A01 T02320111  RH  046%=      5-min Rain = 0
KCL1 240209Z 11007KT 23/11 A3023 RMK A01 T02320111  RH  046%=      5-min Rain = 0
KCL1 240210Z 11007KT 23/11 A3023 RMK A01 T02320111  RH  046%=      5-min Rain = 0
KCL1 240211Z 11007KT 23/11 A3023 RMK A01 T02310111  RH  047%=      5-min Rain = 0
KCL1 240212Z 11008KT 23/11 A3023 RMK A01 T02310111  RH  047%=      5-min Rain = 0
KCL1 240213Z 11007KT 23/11 A3023 RMK A01 T02310111  RH  047%=      5-min Rain = 0
KCL1 240214Z 11007KT 23/11 A3023 RMK A01 T02300111  RH  047%=      5-min Rain = 0
KCL1 240215Z 12007KT 23/11 A3023 RMK A01 T02300110  RH  047%=      5-min Rain = 0
KCL1 240216Z 12007KT 23/11 A3023 RMK A01 T02310110  RH  047%=      5-min Rain = 0
KCL1 240217Z 12007KT 23/11 A3023 RMK A01 T02300110  RH  047%=      5-min Rain = 0
KCL1 240218Z 12007KT 23/11 A3023 RMK A01 T02300110  RH  047%=      5-min Rain = 0
KCL1 240219Z 12007KT 23/11 A3023 RMK A01 T02300110  RH  047%=      5-min Rain = 0
KCL1 240220Z 12007KT 23/11 A3023 RMK A01 T02290110  RH  047%=      5-min Rain = 0
KCL1 240221Z 12007KT 23/11 A3023 RMK A01 T02290110  RH  047%=      5-min Rain = 0
KCL1 240222Z 12007KT 23/11 A3023 RMK A01 T02290110  RH  047%=      5-min Rain = 0
KCL1 240223Z 12006KT 23/11 A3023 RMK A01 T02280110  RH  047%=      5-min Rain = 0
KCL1 240224Z 12006KT 23/11 A3023 RMK A01 T02280110  RH  047%=      5-min Rain = 0
KCL1 240225Z 12007KT 23/11 A3023 RMK A01 T02270110  RH  047%=      5-min Rain = 0
KCL1 240226Z 12006KT 23/11 A3023 RMK A01 T02270110  RH  047%=      5-min Rain = 0
KCL1 240227Z 12006KT 23/11 A3024 RMK A01 T02270110  RH  048%=      5-min Rain = 0
KCL1 240228Z 12006KT 23/11 A3024 RMK A01 T02260110  RH  048%=      5-min Rain = 0
KCL1 240229Z 12007KT 23/11 A3024 RMK A01 T02260110  RH  048%=      5-min Rain = 0
KCL1 240230Z 11008KT 23/11 A3024 RMK A01 T02260110  RH  048%=      5-min Rain = 0
KCL1 240231Z 11008KT 23/11 A3024 RMK A01 T02260109  RH  048%=      5-min Rain = 0
KCL1 240232Z 11007KT 23/11 A3024 RMK A01 T02270110  RH  047%=      5-min Rain = 0
KCL1 240233Z 11008KT 23/11 A3024 RMK A01 T02280110  RH  047%=      5-min Rain = 0
KCL1 240234Z 11008KT 23/11 A3024 RMK A01 T02290110  RH  047%=      5-min Rain = 0
KCL1 240235Z 11007KT 23/11 A3024 RMK A01 T02290110  RH  047%=      5-min Rain = 0
KCL1 240236Z 11007KT 23/11 A3024 RMK A01 T02290110  RH  047%=      5-min Rain = 0
KCL1 240237Z 11007KT 23/11 A3024 RMK A01 T02290111  RH  047%=      5-min Rain = 0
KCL1 240238Z 11007KT 23/11 A3024 RMK A01 T02290111  RH  047%=      5-min Rain = 0
KCL1 240239Z 11007KT 23/11 A3024 RMK A01 T02280110  RH  047%=      5-min Rain = 0
KCL1 240240Z 11008KT 23/11 A3024 RMK A01 T02270110  RH  048%=      5-min Rain = 0
KCL1 240241Z 11008KT 23/11 A3024 RMK A01 T02270111  RH  048%=      5-min Rain = 0
KCL1 240242Z 11008KT 23/11 A3024 RMK A01 T02280111  RH  048%=      5-min Rain = 0
KCL1 240243Z 11008KT 23/11 A3024 RMK A01 T02280111  RH  048%=      5-min Rain = 0
KCL1 240244Z 10008KT 23/11 A3024 RMK A01 T02290111  RH  047%=      5-min Rain = 0
KCL1 240245Z 11008KT 23/11 A3024 RMK A01 T02300112  RH  047%=      5-min Rain = 0
KCL1 240246Z 11008KT 23/11 A3024 RMK A01 T02300112  RH  047%=      5-min Rain = 0
KCL1 240247Z 11007KT 23/11 A3025 RMK A01 T02300112  RH  047%=      5-min Rain = 0
KCL1 240248Z 11007KT 23/11 A3025 RMK A01 T02300112  RH  047%=      5-min Rain = 0
KCL1 240249Z 11007KT 23/11 A3025 RMK A01 T02290112  RH  048%=      5-min Rain = 0
KCL1 240250Z 11007KT 23/11 A3025 RMK A01 T02280112  RH  048%=      5-min Rain = 0
KCL1 240251Z 11006KT 23/11 A3025 RMK A01 T02270112  RH  048%=      5-min Rain = 0
KCL1 240252Z 11006KT 23/11 A3025 RMK A01 T02260111  RH  048%=      5-min Rain = 0
KCL1 240253Z 11006KT 23/11 A3025 RMK A01 T02250111  RH  049%=      5-min Rain = 0
KCL1 240254Z 11006KT 22/11 A3025 RMK A01 T02240111  RH  049%=      5-min Rain = 0
KCL1 240255Z 11006KT 22/11 A3025 RMK A01 T02230111  RH  049%=      5-min Rain = 0
KCL1 240256Z 11006KT 22/11 A3025 RMK A01 T02210111  RH  050%=      5-min Rain = 0
KCL1 240257Z 11007KT 22/11 A3025 RMK A01 T02200111  RH  050%=      5-min Rain = 0
KCL1 240258Z 11006KT 22/11 A3025 RMK A01 T02200111  RH  050%=      5-min Rain = 0
KCL1 240259Z 11006KT 22/11 A3025 RMK A01 T02190111  RH  050%=      5-min Rain = 0
KCL1 240300Z 11006KT 22/11 A3025 RMK A01 T02180111  RH  050%=      5-min Rain = 0
KCL1 240301Z 10006KT 22/11 A3025 RMK A01 T02170111  RH  051%=      5-min Rain = 0
KCL1 240302Z 10006KT 22/11 A3025 RMK A01 T02160110  RH  051%=      5-min Rain = 0
KCL1 240303Z 10006KT 22/11 A3025 RMK A01 T02150110  RH  051%=      5-min Rain = 0
KCL1 240304Z 10007KT 22/11 A3025 RMK A01 T02150111  RH  051%=      5-min Rain = 0
KCL1 240305Z 10007KT 22/11 A3025 RMK A01 T02150111  RH  051%=      5-min Rain = 0
KCL1 240306Z 10007KT 22/11 A3025 RMK A01 T02150111  RH  051%=      5-min Rain = 0
KCL1 240307Z 10007KT 22/11 A3025 RMK A01 T02150111  RH  051%=      5-min Rain = 0
KCL1 240308Z 11007KT 21/11 A3025 RMK A01 T02140110  RH  052%=      5-min Rain = 0
KCL1 240309Z 11006KT 21/11 A3025 RMK A01 T02140110  RH  051%=      5-min Rain = 0
KCL1 240310Z 10007KT 21/11 A3026 RMK A01 T02140110  RH  051%=      5-min Rain = 0
KCL1 240311Z 10007KT 21/11 A3026 RMK A01 T02140110  RH  051%=      5-min Rain = 0
KCL1 240312Z 10007KT 21/11 A3026 RMK A01 T02140110  RH  051%=      5-min Rain = 0
KCL1 240313Z 11006KT 21/11 A3026 RMK A01 T02140109  RH  051%=      5-min Rain = 0
KCL1 240314Z 11007KT 21/11 A3026 RMK A01 T02140109  RH  051%=      5-min Rain = 0
KCL1 240315Z 11008KT 21/11 A3026 RMK A01 T02140109  RH  051%=      5-min Rain = 0
KCL1 240316Z 11008KT 21/11 A3026 RMK A01 T02130109  RH  051%=      5-min Rain = 0
KCL1 240317Z 11007KT 21/11 A3026 RMK A01 T02140109  RH  051%=      5-min Rain = 0
KCL1 240318Z 11007KT 22/11 A3026 RMK A01 T02150109  RH  051%=      5-min Rain = 0
KCL1 240319Z 11008KT 22/11 A3026 RMK A01 T02150108  RH  051%=      5-min Rain = 0
KCL1 240320Z 11008G13KT 22/11 A3026 RMK A01 T02160108  RH  050%=      5-min Rain = 0
KCL1 240321Z 11007KT 22/11 A3026 RMK A01 T02170109  RH  050%=      5-min Rain = 0
KCL1 240322Z 11007KT 22/11 A3026 RMK A01 T02170108  RH  050%=      5-min Rain = 0
KCL1 240323Z 11007KT 22/11 A3026 RMK A01 T02170108  RH  050%=      5-min Rain = 0
KCL1 240324Z 10008KT 22/11 A3026 RMK A01 T02170108  RH  050%=      5-min Rain = 0
KCL1 240325Z 11007KT 22/11 A3026 RMK A01 T02170108  RH  050%=      5-min Rain = 0
KCL1 240326Z 10007KT 22/11 A3026 RMK A01 T02170108  RH  050%=      5-min Rain = 0
KCL1 240327Z 10007KT 22/11 A3026 RMK A01 T02170108  RH  050%=      5-min Rain = 0
KCL1 240328Z 10007KT 22/11 A3026 RMK A01 T02160108  RH  050%=      5-min Rain = 0
KCL1 240329Z 10008KT 22/11 A3026 RMK A01 T02150108  RH  050%=      5-min Rain = 0
KCL1 240330Z 10007KT 21/11 A3026 RMK A01 T02140108  RH  051%=      5-min Rain = 0
KCL1 240331Z 11007KT 21/11 A3026 RMK A01 T02140108  RH  051%=      5-min Rain = 0
KCL1 240332Z 11007KT 21/11 A3026 RMK A01 T02140107  RH  051%=      5-min Rain = 0
KCL1 240333Z 10008KT 21/11 A3026 RMK A01 T02140108  RH  051%=      5-min Rain = 0
KCL1 240334Z 10008KT 21/11 A3026 RMK A01 T02140107  RH  051%=      5-min Rain = 0
KCL1 240335Z 11008KT 21/11 A3026 RMK A01 T02130107  RH  051%=      5-min Rain = 0
KCL1 240336Z 11008KT 21/11 A3026 RMK A01 T02140107  RH  051%=      5-min Rain = 0
KCL1 240337Z 11008KT 21/11 A3026 RMK A01 T02140107  RH  051%=      5-min Rain = 0
KCL1 240338Z 11007KT 21/11 A3026 RMK A01 T02140107  RH  051%=      5-min Rain = 0
KCL1 240339Z 11008KT 21/11 A3026 RMK A01 T02130107  RH  051%=      5-min Rain = 0
KCL1 240340Z 11008KT 21/11 A3026 RMK A01 T02140107  RH  050%=      5-min Rain = 0
KCL1 240341Z 11008KT 21/11 A3026 RMK A01 T02140107  RH  050%=      5-min Rain = 0
KCL1 240342Z 11008KT 21/11 A3026 RMK A01 T02140107  RH  050%=      5-min Rain = 0
KCL1 240343Z 11009KT 21/11 A3026 RMK A01 T02140107  RH  050%=      5-min Rain = 0
KCL1 240344Z 11009KT 21/11 A3026 RMK A01 T02140106  RH  050%=      5-min Rain = 0
KCL1 240345Z 11008KT 21/11 A3026 RMK A01 T02140106  RH  050%=      5-min Rain = 0
KCL1 240346Z 11009KT 22/11 A3026 RMK A01 T02150106  RH  050%=      5-min Rain = 0
KCL1 240347Z 11008KT 22/11 A3026 RMK A01 T02160105  RH  049%=      5-min Rain = 0
KCL1 240348Z 11009KT 22/11 A3026 RMK A01 T02170105  RH  049%=      5-min Rain = 0
KCL1 240349Z 11008KT 22/11 A3026 RMK A01 T02170105  RH  049%=      5-min Rain = 0
KCL1 240350Z 11008KT 22/11 A3027 RMK A01 T02170105  RH  049%=      5-min Rain = 0
KCL1 240351Z 11009KT 22/10 A3027 RMK A01 T02170104  RH  049%=      5-min Rain = 0
KCL1 240352Z 11008KT 22/10 A3027 RMK A01 T02170104  RH  049%=      5-min Rain = 0
KCL1 240353Z 11009KT 22/10 A3027 RMK A01 T02170104  RH  049%=      5-min Rain = 0
KCL1 240354Z 11008KT 22/10 A3027 RMK A01 T02170104  RH  048%=      5-min Rain = 0
KCL1 240355Z 11009KT 22/10 A3027 RMK A01 T02170104  RH  048%=      5-min Rain = 0
KCL1 240356Z 11009KT 22/10 A3027 RMK A01 T02170104  RH  048%=      5-min Rain = 0
KCL1 240357Z 11008KT 22/10 A3027 RMK A01 T02170103  RH  048%=      5-min Rain = 0
KCL1 240358Z 11010KT 22/10 A3027 RMK A01 T02170103  RH  048%=      5-min Rain = 0
KCL1 240359Z 11009KT 22/10 A3027 RMK A01 T02170102  RH  048%=      5-min Rain = 0
KCL1 240400Z 11009KT 22/10 A3027 RMK A01 T02180103  RH  048%=      5-min Rain = 0
KCL1 240401Z 11008KT 22/10 A3027 RMK A01 T02180102  RH  048%=      5-min Rain = 0
KCL1 240402Z 11008KT 22/10 A3027 RMK A01 T02170102  RH  048%=      5-min Rain = 0
KCL1 240403Z 11009KT 22/10 A3027 RMK A01 T02170102  RH  048%=      5-min Rain = 0
KCL1 240404Z 11009KT 22/10 A3027 RMK A01 T02170102  RH  048%=      5-min Rain = 0
KCL1 240405Z 11009KT 22/10 A3027 RMK A01 T02170102  RH  048%=      5-min Rain = 0
KCL1 240406Z 11008KT 22/10 A3027 RMK A01 T02160101  RH  048%=      5-min Rain = 0
KCL1 240407Z 11008KT 22/10 A3027 RMK A01 T02160102  RH  048%=      5-min Rain = 0
KCL1 240408Z 11010KT 22/10 A3027 RMK A01 T02160102  RH  048%=      5-min Rain = 0
KCL1 240409Z 11010KT 22/10 A3027 RMK A01 T02160101  RH  048%=      5-min Rain = 0
KCL1 240410Z 11010KT 22/10 A3027 RMK A01 T02170101  RH  048%=      5-min Rain = 0
KCL1 240411Z 11010KT 22/10 A3027 RMK A01 T02180101  RH  047%=      5-min Rain = 0
KCL1 240412Z 11010KT 22/10 A3027 RMK A01 T02180100  RH  047%=      5-min Rain = 0
KCL1 240413Z 11009KT 22/10 A3027 RMK A01 T02180100  RH  047%=      5-min Rain = 0
KCL1 240414Z 11009KT 22/10 A3027 RMK A01 T02190101  RH  047%=      5-min Rain = 0
KCL1 240415Z 11009KT 22/10 A3027 RMK A01 T02180100  RH  047%=      5-min Rain = 0
KCL1 240416Z 11009KT 22/10 A3027 RMK A01 T02180100  RH  047%=      5-min Rain = 0
KCL1 240417Z 11009KT 22/10 A3027 RMK A01 T02170100  RH  047%=      5-min Rain = 0
KCL1 240418Z 11008KT 22/10 A3027 RMK A01 T02170099  RH  047%=      5-min Rain = 0
KCL1 240419Z 11010KT 22/10 A3027 RMK A01 T02170100  RH  047%=      5-min Rain = 0
KCL1 240420Z 11009KT 22/10 A3027 RMK A01 T02160099  RH  047%=      5-min Rain = 0
KCL1 240421Z 11009KT 22/10 A3027 RMK A01 T02170099  RH  047%=      5-min Rain = 0
KCL1 240422Z 11008KT 22/10 A3027 RMK A01 T02170099  RH  047%=      5-min Rain = 0
KCL1 240423Z 11009KT 22/10 A3027 RMK A01 T02170099  RH  047%=      5-min Rain = 0
KCL1 240424Z 11010KT 22/10 A3027 RMK A01 T02170099  RH  047%=      5-min Rain = 0
KCL1 240425Z 11008KT 22/10 A3027 RMK A01 T02170098  RH  047%=      5-min Rain = 0
KCL1 240426Z 11009KT 22/10 A3027 RMK A01 T02170098  RH  047%=      5-min Rain = 0
KCL1 240427Z 11009KT 22/10 A3027 RMK A01 T02170098  RH  047%=      5-min Rain = 0
KCL1 240428Z 11008KT 22/10 A3027 RMK A01 T02160098  RH  047%=      5-min Rain = 0
KCL1 240429Z 11008KT 22/10 A3027 RMK A01 T02150097  RH  047%=      5-min Rain = 0
KCL1 240430Z 11008KT 21/10 A3028 RMK A01 T02140097  RH  047%=      5-min Rain = 0
KCL1 240431Z 12008KT 21/10 A3028 RMK A01 T02140097  RH  047%=      5-min Rain = 0
KCL1 240432Z 12009KT 21/10 A3028 RMK A01 T02130097  RH  047%=      5-min Rain = 0
KCL1 240433Z 12009KT 21/10 A3028 RMK A01 T02130097  RH  047%=      5-min Rain = 0
KCL1 240434Z 12007KT 21/10 A3028 RMK A01 T02140097  RH  047%=      5-min Rain = 0
KCL1 240435Z 12007KT 21/10 A3028 RMK A01 T02140097  RH  047%=      5-min Rain = 0
KCL1 240436Z 12007KT 21/10 A3028 RMK A01 T02140096  RH  047%=      5-min Rain = 0
KCL1 240437Z 12006KT 21/10 A3028 RMK A01 T02140097  RH  047%=      5-min Rain = 0
KCL1 240438Z 11007KT 21/10 A3028 RMK A01 T02130097  RH  047%=      5-min Rain = 0
KCL1 240439Z 12007KT 21/10 A3028 RMK A01 T02130096  RH  047%=      5-min Rain = 0
KCL1 240440Z 11007KT 21/10 A3028 RMK A01 T02120096  RH  047%=      5-min Rain = 0
KCL1 240441Z 12007KT 21/10 A3028 RMK A01 T02120096  RH  047%=      5-min Rain = 0
KCL1 240442Z 12007KT 21/10 A3028 RMK A01 T02120096  RH  047%=      5-min Rain = 0
KCL1 240443Z 12006KT 21/10 A3028 RMK A01 T02110096  RH  048%=      5-min Rain = 0
KCL1 240444Z 12007KT 21/10 A3028 RMK A01 T02100096  RH  048%=      5-min Rain = 0
KCL1 240445Z 12007KT 21/10 A3027 RMK A01 T02090095  RH  048%=      5-min Rain = 0
KCL1 240446Z 12007KT 21/10 A3027 RMK A01 T02080095  RH  048%=      5-min Rain = 0
KCL1 240447Z 12006KT 21/10 A3027 RMK A01 T02080095  RH  049%=      5-min Rain = 0
KCL1 240448Z 12007KT 21/10 A3027 RMK A01 T02070095  RH  049%=      5-min Rain = 0
KCL1 240449Z 12007KT 21/10 A3027 RMK A01 T02060095  RH  049%=      5-min Rain = 0
KCL1 240450Z 12007KT 21/10 A3027 RMK A01 T02060095  RH  049%=      5-min Rain = 0
KCL1 240451Z 12006KT 21/10 A3027 RMK A01 T02050095  RH  049%=      5-min Rain = 0
KCL1 240452Z 12006KT 21/09 A3027 RMK A01 T02050094  RH  049%=      5-min Rain = 0
KCL1 240453Z 12006KT 20/09 A3027 RMK A01 T02040094  RH  049%=      5-min Rain = 0
KCL1 240454Z 12006KT 20/09 A3027 RMK A01 T02040094  RH  049%=      5-min Rain = 0
KCL1 240455Z 12007KT 20/09 A3027 RMK A01 T02030094  RH  050%=      5-min Rain = 0
KCL1 240456Z 12006KT 20/09 A3027 RMK A01 T02020094  RH  050%=      5-min Rain = 0
KCL1 240457Z 12005KT 20/09 A3028 RMK A01 T02010094  RH  050%=      5-min Rain = 0
KCL1 240458Z 12005KT 20/09 A3028 RMK A01 T02000094  RH  050%=      5-min Rain = 0
KCL1 240459Z 13006KT 20/09 A3028 RMK A01 T02000094  RH  050%=      5-min Rain = 0

Page generated in 0.1224 seconds.